Wetterdaten: Freitag, 13.01.2023
Datum Zeit Temp. Aussen Temp. o. S. Temp +5cm Feuchte Auss Luftdruck Regen Sonnenschein Regendauer Solar Windben Empfang
13.01.2023 00:00 10,4 C 9,4 C 6,7 C 96 % 1005,6 hPa 0,0 l/m 0 min 2 min 0 W/m 32,2 km/h (5 Bft) 98,11 %
13.01.2023 00:02 10,4 C 9,4 C 6,7 C 95 % 1005,8 hPa 0,0 l/m 0 min 2 min 0 W/m 32,2 km/h (5 Bft) 93,33 %
13.01.2023 00:04 10,4 C 9,4 C 6,7 C 95 % 1005,5 hPa 0,0 l/m 0 min 2 min 0 W/m 41,8 km/h (6 Bft) 100,00 %
13.01.2023 00:07 10,4 C 9,4 C 7,2 C 95 % 1005,5 hPa 0,0 l/m 0 min 3 min 0 W/m 38,6 km/h (5 Bft) 98,88 %
13.01.2023 00:08 10,5 C 9,4 C 7,2 C 95 % 1005,5 hPa 0,0 l/m 0 min 1 min 0 W/m 48,3 km/h (6 Bft) 100,00 %
13.01.2023 00:12 10,5 C 9,4 C 7,2 C 95 % 1005,5 hPa 0,0 l/m 0 min 4 min 0 W/m 16,1 km/h (3 Bft) 100,00 %
13.01.2023 00:14 10,6 C 9,4 C 7,2 C 95 % 1005,5 hPa 0,0 l/m 0 min 2 min 0 W/m 25,7 km/h (4 Bft) 94,12 %
13.01.2023 00:16 10,6 C 9,4 C 7,2 C 95 % 1005,5 hPa 0,0 l/m 0 min 2 min 0 W/m 22,5 km/h (4 Bft) 100,00 %
13.01.2023 00:18 10,6 C 9,4 C 6,7 C 95 % 1005,5 hPa 0,0 l/m 0 min 0 min 0 W/m 22,5 km/h (4 Bft) 95,74 %
13.01.2023 00:20 10,6 C 9,4 C 7,2 C 95 % 1005,4 hPa 0,0 l/m 0 min 0 min 0 W/m 29,0 km/h (5 Bft) 97,87 %
13.01.2023 00:22 10,6 C 9,4 C 7,2 C 95 % 1005,5 hPa 0,0 l/m 0 min 2 min 0 W/m 25,7 km/h (4 Bft) 97,87 %
13.01.2023 00:24 10,6 C 9,4 C 7,2 C 95 % 1005,5 hPa 0,0 l/m 0 min 2 min 0 W/m 29,0 km/h (5 Bft) 95,74 %
13.01.2023 00:26 10,6 C 9,4 C 7,2 C 95 % 1005,6 hPa 0,0 l/m 0 min 2 min 0 W/m 48,3 km/h (6 Bft) 97,87 %
13.01.2023 00:28 10,6 C 9,4 C 7,2 C 95 % 1005,5 hPa 0,0 l/m 0 min 2 min 0 W/m 54,7 km/h (7 Bft) 97,87 %
13.01.2023 00:30 10,5 C 9,4 C 7,2 C 95 % 1005,5 hPa 0,0 l/m 0 min 2 min 0 W/m 41,8 km/h (6 Bft) 93,48 %
13.01.2023 00:32 10,5 C 9,4 C 7,2 C 95 % 1005,5 hPa 0,2 l/m 0 min 2 min 0 W/m 16,1 km/h (3 Bft) 95,74 %
13.01.2023 00:34 10,4 C 9,4 C 7,2 C 95 % 1005,5 hPa 0,0 l/m 0 min 2 min 0 W/m 19,3 km/h (3 Bft) 97,87 %
13.01.2023 00:36 10,4 C 9,4 C 7,2 C 95 % 1005,5 hPa 0,0 l/m 0 min 0 min 0 W/m 22,5 km/h (4 Bft) 95,74 %
13.01.2023 00:38 10,4 C 9,4 C 7,2 C 95 % 1005,5 hPa 0,0 l/m 0 min 0 min 0 W/m 16,1 km/h (3 Bft) 97,87 %
13.01.2023 00:40 10,4 C 9,4 C 6,7 C 95 % 1005,6 hPa 0,0 l/m 0 min 0 min 0 W/m 19,3 km/h (3 Bft) 97,87 %
13.01.2023 00:42 10,4 C 9,4 C 6,7 C 95 % 1005,6 hPa 0,0 l/m 0 min 0 min 0 W/m 22,5 km/h (4 Bft) 93,48 %
13.01.2023 00:44 10,3 C 9,4 C 6,7 C 95 % 1005,6 hPa 0,0 l/m 0 min 0 min 0 W/m 25,7 km/h (4 Bft) 97,87 %
13.01.2023 00:46 10,3 C 9,4 C 6,7 C 95 % 1005,5 hPa 0,0 l/m 0 min 0 min 0 W/m 29,0 km/h (5 Bft) 97,87 %
13.01.2023 00:48 10,3 C 9,4 C 6,7 C 95 % 1005,6 hPa 0,0 l/m 0 min 0 min 0 W/m 25,7 km/h (4 Bft) 93,62 %
13.01.2023 00:50 10,3 C 9,4 C 6,7 C 95 % 1005,5 hPa 0,0 l/m 0 min 0 min 0 W/m 29,0 km/h (5 Bft) 97,87 %
13.01.2023 00:52 10,3 C 9,4 C 6,7 C 95 % 1005,7 hPa 0,0 l/m 0 min 0 min 0 W/m 16,1 km/h (3 Bft) 97,87 %
13.01.2023 00:54 10,2 C 9,4 C 6,7 C 95 % 1005,4 hPa 0,0 l/m 0 min 0 min 0 W/m 19,3 km/h (3 Bft) 95,74 %
13.01.2023 00:56 10,2 C 9,4 C 6,7 C 95 % 1005,3 hPa 0,0 l/m 0 min 0 min 0 W/m 22,5 km/h (4 Bft) 97,83 %
13.01.2023 00:58 10,2 C 9,4 C 6,7 C 95 % 1005,4 hPa 0,0 l/m 0 min 0 min 0 W/m 19,3 km/h (3 Bft) 95,74 %
13.01.2023 01:00 10,2 C 9,4 C 6,7 C 95 % 1005,2 hPa 0,0 l/m 0 min 0 min 0 W/m 22,5 km/h (4 Bft) 93,62 %
13.01.2023 01:02 10,2 C 9,4 C 6,7 C 95 % 1005,3 hPa 0,0 l/m 0 min 0 min 0 W/m 22,5 km/h (4 Bft) 97,87 %
13.01.2023 01:04 10,2 C 9,4 C 6,7 C 95 % 1005,1 hPa 0,0 l/m 0 min 0 min 0 W/m 22,5 km/h (4 Bft) 97,87 %
13.01.2023 01:06 10,2 C 9,4 C 6,7 C 95 % 1005,1 hPa 0,0 l/m 0 min 0 min 0 W/m 29,0 km/h (5 Bft) 96,61 %
13.01.2023 01:08 10,1 C 9,4 C 6,7 C 95 % 1005,2 hPa 0,0 l/m 0 min 0 min 0 W/m 38,6 km/h (5 Bft) 97,22 %
13.01.2023 01:10 10,1 C 9,4 C 6,7 C 95 % 1005,2 hPa 0,0 l/m 0 min 0 min 0 W/m 19,3 km/h (3 Bft) 97,83 %
13.01.2023 01:12 10,1 C 8,9 C 6,7 C 95 % 1005,1 hPa 0,0 l/m 0 min 0 min 0 W/m 12,9 km/h (3 Bft) 95,74 %
13.01.2023 01:14 10,1 C 8,9 C 6,7 C 94 % 1005,2 hPa 0,0 l/m 0 min 0 min 0 W/m 25,7 km/h (4 Bft) 97,87 %
13.01.2023 01:16 10,1 C 8,9 C 6,1 C 94 % 1005,2 hPa 0,0 l/m 0 min 0 min 0 W/m 19,3 km/h (3 Bft) 97,87 %
13.01.2023 01:18 10,0 C 8,9 C 6,1 C 94 % 1005,2 hPa 0,0 l/m 0 min 0 min 0 W/m 16,1 km/h (3 Bft) 95,74 %
13.01.2023 01:20 10,0 C 8,9 C 6,1 C 94 % 1005,4 hPa 0,0 l/m 0 min 0 min 0 W/m 19,3 km/h (3 Bft) 97,87 %
13.01.2023 01:22 10,0 C 9,4 C 6,1 C 94 % 1005,1 hPa 0,0 l/m 0 min 0 min 0 W/m 29,0 km/h (5 Bft) 97,83 %
13.01.2023 01:24 10,0 C 9,4 C 6,1 C 94 % 1005,1 hPa 0,0 l/m 0 min 0 min 0 W/m 22,5 km/h (4 Bft) 93,62 %
13.01.2023 01:26 9,9 C 9,4 C 6,1 C 94 % 1005,0 hPa 0,0 l/m 0 min 0 min 0 W/m 16,1 km/h (3 Bft) 93,62 %
13.01.2023 01:28 9,9 C 9,4 C 6,1 C 94 % 1005,2 hPa 0,0 l/m 0 min 0 min 0 W/m 29,0 km/h (5 Bft) 95,74 %
13.01.2023 01:30 9,9 C 9,4 C 6,1 C 94 % 1005,3 hPa 0,0 l/m 0 min 0 min 0 W/m 19,3 km/h (3 Bft) 97,87 %
13.01.2023 01:32 9,9 C 9,4 C 6,1 C 94 % 1005,1 hPa 0,0 l/m 0 min 0 min 0 W/m 16,1 km/h (3 Bft) 97,87 %
13.01.2023 01:34 9,9 C 9,4 C 6,1 C 94 % 1005,2 hPa 0,0 l/m 0 min 0 min 0 W/m 16,1 km/h (3 Bft) 97,83 %
13.01.2023 01:36 9,9 C 9,4 C 6,1 C 94 % 1005,2 hPa 0,0 l/m 0 min 0 min 0 W/m 12,9 km/h (3 Bft) 97,87 %
13.01.2023 01:38 9,9 C 9,4 C 6,1 C 94 % 1005,2 hPa 0,0 l/m 0 min 0 min 0 W/m 16,1 km/h (3 Bft) 95,74 %
13.01.2023 01:40 9,9 C 9,4 C 6,1 C 94 % 1005,3 hPa 0,0 l/m 0 min 2 min 0 W/m 16,1 km/h (3 Bft) 95,74 %
13.01.2023 01:42 9,9 C 9,4 C 6,1 C 93 % 1005,5 hPa 0,0 l/m 0 min 0 min 0 W/m 22,5 km/h (4 Bft) 95,74 %
13.01.2023 01:44 10,0 C 9,4 C 6,1 C 93 % 1005,2 hPa 0,0 l/m 0 min 0 min 0 W/m 19,3 km/h (3 Bft) 97,87 %
13.01.2023 01:46 10,0 C 9,4 C 6,1 C 93 % 1005,2 hPa 0,0 l/m 0 min 0 min 0 W/m 22,5 km/h (4 Bft) 95,74 %
13.01.2023 01:48 10,0 C 9,4 C 6,1 C 93 % 1005,2 hPa 0,0 l/m 0 min 0 min 0 W/m 16,1 km/h (3 Bft) 97,83 %
13.01.2023 01:50 9,9 C 9,4 C 6,1 C 93 % 1005,2 hPa 0,0 l/m 0 min 0 min 0 W/m 16,1 km/h (3 Bft) 97,87 %
13.01.2023 01:52 9,9 C 9,4 C 6,1 C 93 % 1005,4 hPa 0,0 l/m 0 min 0 min 0 W/m 12,9 km/h (3 Bft) 95,74 %
13.01.2023 01:54 9,9 C 9,4 C 6,1 C 93 % 1005,3 hPa 0,0 l/m 0 min 0 min 0 W/m 16,1 km/h (3 Bft) 97,87 %
13.01.2023 01:56 9,9 C 9,4 C 6,1 C 92 % 1005,3 hPa 0,0 l/m 0 min 0 min 0 W/m 12,9 km/h (3 Bft) 95,74 %
13.01.2023 01:58 9,9 C 8,9 C 6,1 C 92 % 1005,3 hPa 0,0 l/m 0 min 0 min 0 W/m 22,5 km/h (4 Bft) 97,87 %
13.01.2023 02:00 9,9 C 8,9 C 6,1 C 92 % 1005,3 hPa 0,0 l/m 0 min 0 min 0 W/m 16,1 km/h (3 Bft) 97,87 %
13.01.2023 02:02 9,9 C 8,9 C 6,1 C 92 % 1005,2 hPa 0,0 l/m 0 min 0 min 0 W/m 19,3 km/h (3 Bft) 93,48 %
13.01.2023 02:04 9,9 C 8,9 C 6,1 C 92 % 1005,3 hPa 0,0 l/m 0 min 0 min 0 W/m 12,9 km/h (3 Bft) 95,74 %
13.01.2023 02:06 9,8 C 9,4 C 6,1 C 92 % 1004,9 hPa 0,0 l/m 0 min 0 min 0 W/m 22,5 km/h (4 Bft) 98,31 %
13.01.2023 02:08 9,9 C 8,9 C 6,1 C 92 % 1004,9 hPa 0,0 l/m 0 min 0 min 0 W/m 16,1 km/h (3 Bft) 97,14 %
13.01.2023 02:10 9,9 C 8,9 C 6,1 C 91 % 1004,9 hPa 0,0 l/m 0 min 0 min 0 W/m 25,7 km/h (4 Bft) 97,87 %
13.01.2023 02:12 9,8 C 8,9 C 6,1 C 92 % 1004,9 hPa 0,0 l/m 0 min 0 min 0 W/m 29,0 km/h (5 Bft) 95,74 %
13.01.2023 02:14 9,8 C 8,9 C 6,1 C 91 % 1005,2 hPa 0,0 l/m 0 min 0 min 0 W/m 19,3 km/h (3 Bft) 97,83 %
13.01.2023 02:16 9,8 C 8,9 C 6,1 C 91 % 1005,1 hPa 0,0 l/m 0 min 0 min 0 W/m 19,3 km/h (3 Bft) 97,87 %
13.01.2023 02:18 9,8 C 8,9 C 6,1 C 91 % 1005,2 hPa 0,0 l/m 0 min 0 min 0 W/m 22,5 km/h (4 Bft) 95,74 %
13.01.2023 02:20 9,8 C 8,9 C 6,1 C 91 % 1005,2 hPa 0,0 l/m 0 min 0 min 0 W/m 25,7 km/h (4 Bft) 100,00 %
13.01.2023 02:22 9,8 C 8,9 C 6,1 C 90 % 1005,2 hPa 0,0 l/m 0 min 0 min 0 W/m 25,7 km/h (4 Bft) 100,00 %
13.01.2023 02:24 9,8 C 8,9 C 6,1 C 90 % 1005,3 hPa 0,0 l/m 0 min 0 min 0 W/m 9,7 km/h (2 Bft) 100,00 %
13.01.2023 02:26 9,7 C 8,9 C 6,1 C 90 % 1005,2 hPa 0,0 l/m 0 min 0 min 0 W/m 22,5 km/h (4 Bft) 95,65 %
13.01.2023 02:28 9,8 C 8,9 C 6,1 C 90 % 1005,1 hPa 0,0 l/m 0 min 0 min 0 W/m 16,1 km/h (3 Bft) 100,00 %
13.01.2023 02:30 9,8 C 8,9 C 6,1 C 90 % 1005,2 hPa 0,0 l/m 0 min 0 min 0 W/m 16,1 km/h (3 Bft) 100,00 %
13.01.2023 02:32 9,8 C 8,9 C 6,1 C 90 % 1005,2 hPa 0,0 l/m 0 min 0 min 0 W/m 16,1 km/h (3 Bft) 100,00 %
13.01.2023 02:34 9,7 C 8,9 C 6,1 C 90 % 1005,2 hPa 0,0 l/m 0 min 0 min 0 W/m 12,9 km/h (3 Bft) 100,00 %
13.01.2023 02:36 9,7 C 8,9 C 6,1 C 90 % 1005,1 hPa 0,0 l/m 0 min 0 min 0 W/m 22,5 km/h (4 Bft) 95,74 %
13.01.2023 02:38 9,7 C 8,9 C 6,1 C 90 % 1005,1 hPa 0,0 l/m 0 min 0 min 0 W/m 12,9 km/h (3 Bft) 100,00 %
13.01.2023 02:40 9,7 C 8,9 C 6,1 C 90 % 1005,1 hPa 0,0 l/m 0 min 0 min 0 W/m 9,7 km/h (2 Bft) 100,00 %
13.01.2023 02:42 9,7 C 8,9 C 6,7 C 90 % 1005,2 hPa 0,0 l/m 0 min 0 min 0 W/m 16,1 km/h (3 Bft) 97,87 %
13.01.2023 02:44 9,6 C 8,9 C 6,1 C 90 % 1005,4 hPa 0,0 l/m 0 min 0 min 0 W/m 16,1 km/h (3 Bft) 97,87 %
13.01.2023 02:46 9,6 C 8,9 C 6,1 C 90 % 1005,4 hPa 0,0 l/m 0 min 0 min 0 W/m 16,1 km/h (3 Bft) 95,74 %
13.01.2023 02:48 9,6 C 8,9 C 6,1 C 90 % 1005,6 hPa 0,0 l/m 0 min 0 min 0 W/m 19,3 km/h (3 Bft) 95,74 %
13.01.2023 02:50 9,5 C 8,3 C 6,1 C 90 % 1005,4 hPa 0,0 l/m 0 min 0 min 0 W/m 16,1 km/h (3 Bft) 95,74 %
13.01.2023 02:52 9,5 C 8,3 C 6,1 C 89 % 1005,5 hPa 0,0 l/m 0 min 0 min 0 W/m 16,1 km/h (3 Bft) 95,65 %
13.01.2023 02:54 9,5 C 8,3 C 6,1 C 89 % 1005,5 hPa 0,0 l/m 0 min 0 min 0 W/m 12,9 km/h (3 Bft) 95,74 %
13.01.2023 02:56 9,4 C 8,3 C 6,1 C 89 % 1005,5 hPa 0,0 l/m 0 min 0 min 0 W/m 12,9 km/h (3 Bft) 91,49 %
13.01.2023 02:58 9,4 C 8,3 C 6,1 C 89 % 1005,5 hPa 0,0 l/m 0 min 0 min 0 W/m 19,3 km/h (3 Bft) 95,74 %
13.01.2023 03:00 9,4 C 8,3 C 6,1 C 89 % 1005,4 hPa 0,0 l/m 0 min 0 min 0 W/m 16,1 km/h (3 Bft) 95,74 %
13.01.2023 03:02 9,4 C 8,3 C 6,1 C 89 % 1005,4 hPa 0,0 l/m 0 min 0 min 0 W/m 12,9 km/h (3 Bft) 93,62 %
13.01.2023 03:04 9,3 C 8,3 C 6,1 C 88 % 1005,5 hPa 0,0 l/m 0 min 0 min 0 W/m 16,1 km/h (3 Bft) 95,74 %
13.01.2023 03:06 9,3 C 8,3 C 6,1 C 88 % 1005,4 hPa 0,0 l/m 0 min 0 min 0 W/m 16,1 km/h (3 Bft) 95,65 %
13.01.2023 03:08 9,3 C 8,3 C 5,6 C 88 % 1005,5 hPa 0,0 l/m 0 min 0 min 0 W/m 12,9 km/h (3 Bft) 95,74 %
13.01.2023 03:10 9,2 C 8,3 C 5,6 C 88 % 1005,5 hPa 0,0 l/m 0 min 0 min 0 W/m 16,1 km/h (3 Bft) 95,74 %
13.01.2023 03:12 9,2 C 8,3 C 5,6 C 88 % 1005,5 hPa 0,0 l/m 0 min 0 min 0 W/m 19,3 km/h (3 Bft) 93,62 %
13.01.2023 03:14 9,2 C 8,3 C 6,1 C 88 % 1005,5 hPa 0,0 l/m 0 min 0 min 0 W/m 19,3 km/h (3 Bft) 93,62 %
13.01.2023 03:16 9,2 C 8,3 C 6,1 C 88 % 1005,5 hPa 0,0 l/m 0 min 0 min 0 W/m 12,9 km/h (3 Bft) 93,62 %
13.01.2023 03:18 9,2 C 8,3 C 6,1 C 88 % 1005,6 hPa 0,0 l/m 0 min 0 min 0 W/m 19,3 km/h (3 Bft) 97,87 %
13.01.2023 03:20 9,2 C 8,3 C 6,1 C 88 % 1005,5 hPa 0,0 l/m 0 min 0 min 0 W/m 12,9 km/h (3 Bft) 97,83 %
13.01.2023 03:22 9,2 C 8,3 C 6,1 C 88 % 1005,6 hPa 0,0 l/m 0 min 0 min 0 W/m 6,4 km/h (2 Bft) 95,74 %
13.01.2023 03:24 9,2 C 8,3 C 5,6 C 88 % 1005,7 hPa 0,0 l/m 0 min 0 min 0 W/m 22,5 km/h (4 Bft) 100,00 %
13.01.2023 03:26 9,2 C 8,3 C 6,1 C 88 % 1005,6 hPa 0,0 l/m 0 min 0 min 0 W/m 29,0 km/h (5 Bft) 100,00 %
13.01.2023 03:28 9,1 C 8,3 C 5,6 C 88 % 1005,5 hPa 0,0 l/m 0 min 0 min 0 W/m 16,1 km/h (3 Bft) 100,00 %
13.01.2023 03:30 9,1 C 8,3 C 5,6 C 88 % 1005,5 hPa 0,0 l/m 0 min 0 min 0 W/m 22,5 km/h (4 Bft) 100,00 %
13.01.2023 03:32 9,1 C 8,3 C 5,6 C 87 % 1005,5 hPa 0,0 l/m 0 min 0 min 0 W/m 25,7 km/h (4 Bft) 100,00 %
13.01.2023 03:34 9,1 C 7,8 C 5,6 C 87 % 1005,5 hPa 0,0 l/m 0 min 0 min 0 W/m 16,1 km/h (3 Bft) 97,83 %
13.01.2023 03:36 9,0 C 7,8 C 5,6 C 87 % 1005,4 hPa 0,0 l/m 0 min 0 min 0 W/m 22,5 km/h (4 Bft) 95,74 %
13.01.2023 03:38 8,9 C 7,8 C 5,6 C 86 % 1005,4 hPa 0,0 l/m 0 min 0 min 0 W/m 12,9 km/h (3 Bft) 100,00 %
13.01.2023 03:40 8,9 C 7,8 C 5,6 C 86 % 1005,4 hPa 0,0 l/m 0 min 0 min 0 W/m 16,1 km/h (3 Bft) 100,00 %
13.01.2023 03:42 8,9 C 7,8 C 5,6 C 86 % 1005,4 hPa 0,0 l/m 0 min 0 min 0 W/m 16,1 km/h (3 Bft) 100,00 %
13.01.2023 03:44 8,8 C 7,8 C 5,6 C 86 % 1005,4 hPa 0,0 l/m 0 min 0 min 0 W/m 19,3 km/h (3 Bft) 100,00 %
13.01.2023 03:46 8,8 C 7,8 C 5,6 C 86 % 1005,3 hPa 0,0 l/m 0 min 0 min 0 W/m 16,1 km/h (3 Bft) 100,00 %
13.01.2023 03:48 8,8 C 7,8 C 5,6 C 86 % 1005,3 hPa 0,0 l/m 0 min 0 min 0 W/m 19,3 km/h (3 Bft) 100,00 %
13.01.2023 03:50 8,8 C 7,8 C 5,6 C 85 % 1005,3 hPa 0,0 l/m 0 min 0 min 0 W/m 16,1 km/h (3 Bft) 100,00 %
13.01.2023 03:52 8,7 C 7,8 C 5,6 C 85 % 1005,3 hPa 0,0 l/m 0 min 0 min 0 W/m 16,1 km/h (3 Bft) 100,00 %
13.01.2023 03:54 8,7 C 7,8 C 5,6 C 85 % 1005,4 hPa 0,0 l/m 0 min 0 min 0 W/m 16,1 km/h (3 Bft) 97,87 %
13.01.2023 03:56 8,7 C 7,8 C 5,6 C 85 % 1005,3 hPa 0,0 l/m 0 min 0 min 0 W/m 19,3 km/h (3 Bft) 97,87 %
13.01.2023 03:58 8,6 C 7,8 C 5,0 C 85 % 1005,4 hPa 0,0 l/m 0 min 0 min 0 W/m 16,1 km/h (3 Bft) 97,87 %
13.01.2023 04:00 8,6 C 7,8 C 5,0 C 85 % 1005,2 hPa 0,0 l/m 0 min 0 min 0 W/m 12,9 km/h (3 Bft) 100,00 %
13.01.2023 04:02 8,6 C 7,2 C 5,0 C 85 % 1005,3 hPa 0,0 l/m 0 min 0 min 0 W/m 19,3 km/h (3 Bft) 96,55 %
13.01.2023 04:07 8,4 C 7,2 C 5,0 C 85 % 1005,2 hPa 0,0 l/m 0 min 0 min 0 W/m 16,1 km/h (3 Bft) 100,00 %
13.01.2023 04:08 8,4 C 7,2 C 5,0 C 85 % 1005,2 hPa 0,0 l/m 0 min 0 min 0 W/m 12,9 km/h (3 Bft) 100,00 %
13.01.2023 04:10 8,4 C 7,2 C 5,0 C 85 % 1005,3 hPa 0,0 l/m 0 min 0 min 0 W/m 16,1 km/h (3 Bft) 100,00 %
13.01.2023 04:12 8,4 C 7,2 C 5,0 C 85 % 1005,2 hPa 0,0 l/m 0 min 0 min 0 W/m 19,3 km/h (3 Bft) 100,00 %
13.01.2023 04:14 8,3 C 7,2 C 5,0 C 85 % 1005,2 hPa 0,0 l/m 0 min 0 min 0 W/m 22,5 km/h (4 Bft) 95,65 %
13.01.2023 04:16 8,3 C 7,2 C 5,0 C 84 % 1005,3 hPa 0,0 l/m 0 min 0 min 0 W/m 19,3 km/h (3 Bft) 100,00 %
13.01.2023 04:18 8,3 C 7,2 C 5,0 C 84 % 1005,2 hPa 0,0 l/m 0 min 0 min 0 W/m 16,1 km/h (3 Bft) 97,87 %
13.01.2023 04:20 8,3 C 7,2 C 5,0 C 84 % 1005,2 hPa 0,0 l/m 0 min 0 min 0 W/m 22,5 km/h (4 Bft) 93,62 %
13.01.2023 04:22 8,3 C 7,2 C 5,0 C 84 % 1005,2 hPa 0,0 l/m 0 min 0 min 0 W/m 25,7 km/h (4 Bft) 95,74 %
13.01.2023 04:24 8,3 C 7,2 C 5,0 C 84 % 1005,2 hPa 0,0 l/m 0 min 0 min 0 W/m 22,5 km/h (4 Bft) 97,87 %
13.01.2023 04:26 8,2 C 7,2 C 5,0 C 84 % 1005,2 hPa 0,0 l/m 0 min 0 min 0 W/m 25,7 km/h (4 Bft) 97,83 %
13.01.2023 04:28 8,2 C 7,2 C 5,0 C 84 % 1005,3 hPa 0,0 l/m 0 min 0 min 0 W/m 16,1 km/h (3 Bft) 100,00 %
13.01.2023 04:30 8,2 C 7,2 C 5,0 C 84 % 1005,3 hPa 0,0 l/m 0 min 0 min 0 W/m 22,5 km/h (4 Bft) 100,00 %
13.01.2023 04:32 8,2 C 7,2 C 5,0 C 84 % 1005,2 hPa 0,0 l/m 0 min 0 min 0 W/m 19,3 km/h (3 Bft) 97,87 %
13.01.2023 04:34 8,2 C 7,2 C 5,0 C 85 % 1005,2 hPa 0,0 l/m 0 min 0 min 0 W/m 29,0 km/h (5 Bft) 97,87 %
13.01.2023 04:36 8,2 C 7,2 C 5,0 C 85 % 1005,3 hPa 0,0 l/m 0 min 0 min 0 W/m 19,3 km/h (3 Bft) 95,74 %
13.01.2023 04:38 8,1 C 7,2 C 5,0 C 85 % 1005,2 hPa 0,0 l/m 0 min 0 min 0 W/m 19,3 km/h (3 Bft) 93,62 %
13.01.2023 04:40 8,1 C 7,2 C 5,0 C 85 % 1005,3 hPa 0,0 l/m 0 min 0 min 0 W/m 16,1 km/h (3 Bft) 93,48 %
13.01.2023 04:42 8,1 C 7,2 C 5,0 C 85 % 1005,1 hPa 0,0 l/m 0 min 0 min 0 W/m 35,4 km/h (5 Bft) 91,49 %
13.01.2023 04:44 8,1 C 7,2 C 5,0 C 85 % 1005,1 hPa 0,0 l/m 0 min 0 min 0 W/m 19,3 km/h (3 Bft) 97,87 %
13.01.2023 04:46 8,1 C 7,2 C 5,0 C 85 % 1005,2 hPa 0,0 l/m 0 min 0 min 0 W/m 38,6 km/h (5 Bft) 93,62 %
13.01.2023 04:48 8,1 C 7,2 C 5,0 C 85 % 1005,2 hPa 0,0 l/m 0 min 0 min 0 W/m 29,0 km/h (5 Bft) 93,62 %
13.01.2023 04:50 8,1 C 7,2 C 5,0 C 85 % 1005,2 hPa 0,0 l/m 0 min 0 min 0 W/m 16,1 km/h (3 Bft) 95,74 %
13.01.2023 04:52 8,1 C 7,2 C 5,0 C 85 % 1005,2 hPa 0,0 l/m 0 min 0 min 0 W/m 25,7 km/h (4 Bft) 95,74 %
13.01.2023 04:54 8,1 C 7,2 C 5,0 C 86 % 1005,2 hPa 0,0 l/m 0 min 0 min 0 W/m 41,8 km/h (6 Bft) 93,48 %
13.01.2023 04:56 8,1 C 7,2 C 5,0 C 86 % 1005,2 hPa 0,0 l/m 0 min 0 min 0 W/m 38,6 km/h (5 Bft) 93,62 %
13.01.2023 04:58 8,1 C 7,2 C 5,0 C 85 % 1005,2 hPa 0,0 l/m 0 min 0 min 0 W/m 12,9 km/h (3 Bft) 95,74 %
13.01.2023 05:00 8,1 C 7,2 C 4,4 C 86 % 1005,3 hPa 0,0 l/m 0 min 0 min 0 W/m 16,1 km/h (3 Bft) 95,74 %
13.01.2023 05:02 8,1 C 7,2 C 4,4 C 86 % 1005,2 hPa 0,0 l/m 0 min 0 min 0 W/m 12,9 km/h (3 Bft) 93,62 %
13.01.2023 05:04 8,1 C 7,2 C 4,4 C 86 % 1005,2 hPa 0,0 l/m 0 min 0 min 0 W/m 12,9 km/h (3 Bft) 93,62 %
13.01.2023 05:06 8,0 C 7,2 C 4,4 C 86 % 1005,2 hPa 0,0 l/m 0 min 0 min 0 W/m 16,1 km/h (3 Bft) 93,62 %
13.01.2023 05:08 8,0 C 7,2 C 4,4 C 86 % 1005,3 hPa 0,0 l/m 0 min 0 min 0 W/m 19,3 km/h (3 Bft) 91,30 %
13.01.2023 05:10 8,0 C 7,2 C 4,4 C 86 % 1005,2 hPa 0,0 l/m 0 min 0 min 0 W/m 16,1 km/h (3 Bft) 95,74 %
13.01.2023 05:12 8,0 C 7,2 C 4,4 C 86 % 1005,2 hPa 0,0 l/m 0 min 0 min 0 W/m 25,7 km/h (4 Bft) 93,62 %
13.01.2023 05:14 8,0 C 7,2 C 4,4 C 86 % 1005,2 hPa 0,0 l/m 0 min 0 min 0 W/m 25,7 km/h (4 Bft) 95,74 %
13.01.2023 05:16 8,1 C 7,2 C 5,0 C 86 % 1005,2 hPa 0,0 l/m 0 min 0 min 0 W/m 38,6 km/h (5 Bft) 95,74 %
13.01.2023 05:18 8,1 C 7,2 C 5,0 C 86 % 1005,1 hPa 0,0 l/m 0 min 0 min 0 W/m 22,5 km/h (4 Bft) 93,62 %
13.01.2023 05:20 8,1 C 7,2 C 5,0 C 86 % 1005,2 hPa 0,0 l/m 0 min 0 min 0 W/m 29,0 km/h (5 Bft) 95,65 %
13.01.2023 05:22 8,1 C 7,2 C 5,0 C 86 % 1005,3 hPa 0,0 l/m 0 min 0 min 0 W/m 25,7 km/h (4 Bft) 95,74 %
13.01.2023 05:24 8,2 C 7,8 C 5,0 C 86 % 1005,1 hPa 0,0 l/m 0 min 0 min 0 W/m 38,6 km/h (5 Bft) 97,87 %
13.01.2023 05:26 8,2 C 7,8 C 5,0 C 86 % 1005,1 hPa 0,0 l/m 0 min 0 min 0 W/m 22,5 km/h (4 Bft) 95,74 %
13.01.2023 05:28 8,2 C 7,2 C 5,0 C 86 % 1005,2 hPa 0,0 l/m 0 min 0 min 0 W/m 12,9 km/h (3 Bft) 97,87 %
13.01.2023 05:30 8,2 C 7,2 C 5,0 C 86 % 1005,1 hPa 0,0 l/m 0 min 0 min 0 W/m 25,7 km/h (4 Bft) 95,74 %
13.01.2023 05:32 8,2 C 7,2 C 5,0 C 86 % 1005,1 hPa 0,0 l/m 0 min 0 min 0 W/m 22,5 km/h (4 Bft) 97,87 %
13.01.2023 05:34 8,2 C 7,2 C 5,0 C 86 % 1005,1 hPa 0,0 l/m 0 min 0 min 0 W/m 19,3 km/h (3 Bft) 93,48 %
13.01.2023 05:36 8,2 C 7,2 C 5,0 C 86 % 1005,2 hPa 0,0 l/m 0 min 0 min 0 W/m 19,3 km/h (3 Bft) 97,87 %
13.01.2023 05:38 8,3 C 7,8 C 5,0 C 86 % 1005,3 hPa 0,0 l/m 0 min 0 min 0 W/m 41,8 km/h (6 Bft) 97,87 %
13.01.2023 05:40 8,3 C 7,8 C 5,0 C 86 % 1005,2 hPa 0,0 l/m 0 min 0 min 0 W/m 22,5 km/h (4 Bft) 95,74 %
13.01.2023 05:42 8,3 C 7,8 C 5,0 C 86 % 1005,2 hPa 0,0 l/m 0 min 2 min 0 W/m 25,7 km/h (4 Bft) 97,87 %
13.01.2023 05:44 8,3 C 7,8 C 5,0 C 86 % 1005,3 hPa 0,0 l/m 0 min 2 min 0 W/m 35,4 km/h (5 Bft) 95,74 %
13.01.2023 05:46 8,3 C 7,8 C 4,4 C 86 % 1005,2 hPa 0,0 l/m 0 min 2 min 0 W/m 25,7 km/h (4 Bft) 100,00 %
13.01.2023 05:48 8,3 C 7,8 C 4,4 C 86 % 1005,4 hPa 0,0 l/m 0 min 2 min 0 W/m 41,8 km/h (6 Bft) 100,00 %
13.01.2023 05:50 8,4 C 7,8 C 5,0 C 86 % 1005,6 hPa 0,0 l/m 0 min 2 min 0 W/m 22,5 km/h (4 Bft) 100,00 %
13.01.2023 05:52 8,4 C 7,8 C 5,0 C 86 % 1005,6 hPa 0,0 l/m 0 min 2 min 0 W/m 29,0 km/h (5 Bft) 100,00 %
13.01.2023 05:54 8,4 C 7,8 C 5,0 C 86 % 1005,4 hPa 0,0 l/m 0 min 2 min 0 W/m 16,1 km/h (3 Bft) 100,00 %
13.01.2023 05:56 8,4 C 7,8 C 5,0 C 86 % 1005,1 hPa 0,0 l/m 0 min 2 min 0 W/m 22,5 km/h (4 Bft) 100,00 %
13.01.2023 05:58 8,4 C 7,8 C 5,0 C 86 % 1005,1 hPa 0,0 l/m 0 min 2 min 0 W/m 22,5 km/h (4 Bft) 100,00 %
13.01.2023 06:00 8,4 C 7,8 C 4,4 C 86 % 1005,1 hPa 0,0 l/m 0 min 2 min 0 W/m 22,5 km/h (4 Bft) 100,00 %
13.01.2023 06:02 8,3 C 7,8 C 4,4 C 86 % 1005,1 hPa 0,0 l/m 0 min 0 min 0 W/m 12,9 km/h (3 Bft) 97,83 %
13.01.2023 06:04 8,3 C 7,2 C 4,4 C 86 % 1005,2 hPa 0,0 l/m 0 min 0 min 0 W/m 16,1 km/h (3 Bft) 97,87 %
13.01.2023 06:08 8,3 C 7,2 C 4,4 C 86 % 1005,1 hPa 0,0 l/m 0 min 0 min 0 W/m 22,5 km/h (4 Bft) 98,96 %
13.01.2023 06:10 8,2 C 7,2 C 4,4 C 86 % 1005,1 hPa 0,0 l/m 0 min 0 min 0 W/m 12,9 km/h (3 Bft) 100,00 %
13.01.2023 06:12 8,2 C 7,2 C 4,4 C 86 % 1005,1 hPa 0,0 l/m 0 min 0 min 0 W/m 25,7 km/h (4 Bft) 100,00 %
13.01.2023 06:14 8,2 C 7,2 C 4,4 C 86 % 1005,3 hPa 0,0 l/m 0 min 0 min 0 W/m 29,0 km/h (5 Bft) 100,00 %
13.01.2023 06:16 8,1 C 7,2 C 4,4 C 86 % 1005,2 hPa 0,0 l/m 0 min 0 min 0 W/m 19,3 km/h (3 Bft) 100,00 %
13.01.2023 06:18 8,1 C 7,2 C 4,4 C 86 % 1005,3 hPa 0,0 l/m 0 min 0 min 0 W/m 16,1 km/h (3 Bft) 100,00 %
13.01.2023 06:20 8,1 C 7,2 C 4,4 C 86 % 1005,2 hPa 0,0 l/m 0 min 0 min 0 W/m 19,3 km/h (3 Bft) 100,00 %
13.01.2023 06:22 8,1 C 7,2 C 4,4 C 87 % 1005,2 hPa 0,0 l/m 0 min 0 min 0 W/m 16,1 km/h (3 Bft) 100,00 %
13.01.2023 06:24 8,1 C 7,2 C 4,4 C 87 % 1005,3 hPa 0,0 l/m 0 min 0 min 0 W/m 29,0 km/h (5 Bft) 100,00 %
13.01.2023 06:26 8,1 C 7,2 C 4,4 C 87 % 1005,3 hPa 0,0 l/m 0 min 0 min 0 W/m 19,3 km/h (3 Bft) 95,74 %
13.01.2023 06:28 8,1 C 7,2 C 4,4 C 87 % 1005,2 hPa 0,0 l/m 0 min 0 min 0 W/m 19,3 km/h (3 Bft) 97,83 %
13.01.2023 06:30 8,0 C 7,2 C 4,4 C 87 % 1005,2 hPa 0,0 l/m 0 min 0 min 0 W/m 16,1 km/h (3 Bft) 97,87 %
13.01.2023 06:32 8,0 C 7,2 C 4,4 C 87 % 1005,4 hPa 0,0 l/m 0 min 0 min 0 W/m 16,1 km/h (3 Bft) 97,87 %
13.01.2023 06:34 7,9 C 7,2 C 4,4 C 87 % 1005,4 hPa 0,0 l/m 0 min 0 min 0 W/m 19,3 km/h (3 Bft) 95,74 %
13.01.2023 06:36 7,9 C 7,2 C 4,4 C 87 % 1005,3 hPa 0,0 l/m 0 min 0 min 0 W/m 35,4 km/h (5 Bft) 97,87 %
13.01.2023 06:38 7,9 C 7,2 C 4,4 C 87 % 1005,4 hPa 0,0 l/m 0 min 0 min 0 W/m 25,7 km/h (4 Bft) 97,87 %
13.01.2023 06:40 7,9 C 7,2 C 4,4 C 87 % 1005,3 hPa 0,0 l/m 0 min 0 min 0 W/m 16,1 km/h (3 Bft) 97,83 %
13.01.2023 06:42 7,9 C 7,2 C 4,4 C 87 % 1005,4 hPa 0,0 l/m 0 min 0 min 0 W/m 16,1 km/h (3 Bft) 97,87 %
13.01.2023 06:44 7,9 C 7,2 C 4,4 C 87 % 1005,3 hPa 0,0 l/m 0 min 0 min 0 W/m 22,5 km/h (4 Bft) 97,87 %
13.01.2023 06:46 7,9 C 7,2 C 4,4 C 87 % 1005,3 hPa 0,0 l/m 0 min 0 min 0 W/m 22,5 km/h (4 Bft) 97,87 %
13.01.2023 06:48 7,9 C 7,2 C 4,4 C 87 % 1005,4 hPa 0,0 l/m 0 min 0 min 0 W/m 22,5 km/h (4 Bft) 95,74 %
13.01.2023 06:50 7,9 C 7,2 C 4,4 C 87 % 1005,5 hPa 0,0 l/m 0 min 0 min 0 W/m 25,7 km/h (4 Bft) 95,74 %
13.01.2023 06:52 7,9 C 7,2 C 4,4 C 87 % 1005,3 hPa 0,0 l/m 0 min 0 min 0 W/m 41,8 km/h (6 Bft) 97,87 %
13.01.2023 06:54 7,9 C 7,2 C 4,4 C 87 % 1005,5 hPa 0,0 l/m 0 min 0 min 0 W/m 35,4 km/h (5 Bft) 97,83 %
13.01.2023 06:56 7,9 C 7,2 C 4,4 C 87 % 1005,5 hPa 0,0 l/m 0 min 0 min 0 W/m 12,9 km/h (3 Bft) 97,87 %
13.01.2023 06:58 7,9 C 7,2 C 4,4 C 87 % 1005,5 hPa 0,0 l/m 0 min 0 min 0 W/m 25,7 km/h (4 Bft) 100,00 %
13.01.2023 07:00 7,9 C 7,2 C 4,4 C 87 % 1005,5 hPa 0,0 l/m 0 min 0 min 0 W/m 22,5 km/h (4 Bft) 97,92 %
13.01.2023 07:02 7,9 C 7,2 C 4,4 C 87 % 1005,6 hPa 0,0 l/m 0 min 0 min 0 W/m 29,0 km/h (5 Bft) 97,37 %
13.01.2023 07:04 7,9 C 7,2 C 4,4 C 87 % 1005,6 hPa 0,0 l/m 0 min 0 min 0 W/m 29,0 km/h (5 Bft) 97,87 %
13.01.2023 07:06 7,9 C 7,2 C 4,4 C 87 % 1005,6 hPa 0,0 l/m 0 min 0 min 0 W/m 35,4 km/h (5 Bft) 100,00 %
13.01.2023 07:08 7,9 C 7,2 C 4,4 C 86 % 1005,6 hPa 0,0 l/m 0 min 0 min 0 W/m 25,7 km/h (4 Bft) 100,00 %
13.01.2023 07:10 8,0 C 7,2 C 4,4 C 86 % 1005,5 hPa 0,0 l/m 0 min 0 min 0 W/m 22,5 km/h (4 Bft) 100,00 %
13.01.2023 07:12 8,0 C 7,2 C 4,4 C 86 % 1005,6 hPa 0,0 l/m 0 min 0 min 0 W/m 29,0 km/h (5 Bft) 97,87 %
13.01.2023 07:14 8,0 C 7,2 C 4,4 C 86 % 1005,5 hPa 0,0 l/m 0 min 0 min 0 W/m 16,1 km/h (3 Bft) 100,00 %
13.01.2023 07:16 7,9 C 7,2 C 4,4 C 86 % 1005,6 hPa 0,0 l/m 0 min 0 min 0 W/m 19,3 km/h (3 Bft) 100,00 %
13.01.2023 07:18 7,9 C 7,2 C 4,4 C 86 % 1005,5 hPa 0,0 l/m 0 min 0 min 0 W/m 29,0 km/h (5 Bft) 100,00 %
13.01.2023 07:20 7,9 C 7,2 C 4,4 C 86 % 1005,5 hPa 0,0 l/m 0 min 0 min 0 W/m 19,3 km/h (3 Bft) 100,00 %
13.01.2023 07:22 7,9 C 7,2 C 4,4 C 86 % 1005,6 hPa 0,0 l/m 0 min 0 min 0 W/m 16,1 km/h (3 Bft) 97,87 %
13.01.2023 07:24 7,9 C 7,2 C 4,4 C 86 % 1005,6 hPa 0,0 l/m 0 min 0 min 0 W/m 19,3 km/h (3 Bft) 100,00 %
13.01.2023 07:26 7,9 C 7,2 C 4,4 C 86 % 1005,5 hPa 0,0 l/m 0 min 0 min 0 W/m 22,5 km/h (4 Bft) 100,00 %
13.01.2023 07:28 7,9 C 7,2 C 4,4 C 86 % 1005,6 hPa 0,0 l/m 0 min 0 min 0 W/m 19,3 km/h (3 Bft) 100,00 %
13.01.2023 07:30 7,9 C 7,2 C 4,4 C 86 % 1005,6 hPa 0,0 l/m 0 min 0 min 0 W/m 16,1 km/h (3 Bft) 95,74 %
13.01.2023 07:32 7,8 C 6,7 C 4,4 C 86 % 1005,6 hPa 0,0 l/m 0 min 0 min 0 W/m 12,9 km/h (3 Bft) 95,74 %
13.01.2023 07:34 7,8 C 6,7 C 4,4 C 86 % 1005,7 hPa 0,0 l/m 0 min 0 min 0 W/m 19,3 km/h (3 Bft) 97,87 %
13.01.2023 07:36 7,8 C 7,2 C 4,4 C 86 % 1005,6 hPa 0,0 l/m 0 min 0 min 0 W/m 25,7 km/h (4 Bft) 97,87 %
13.01.2023 07:38 7,8 C 7,2 C 4,4 C 86 % 1005,6 hPa 0,0 l/m 0 min 0 min 0 W/m 12,9 km/h (3 Bft) 95,65 %
13.01.2023 07:40 7,8 C 7,2 C 4,4 C 86 % 1005,7 hPa 0,0 l/m 0 min 0 min 0 W/m 22,5 km/h (4 Bft) 95,74 %
13.01.2023 07:42 7,9 C 7,2 C 4,4 C 86 % 1005,6 hPa 0,0 l/m 0 min 0 min 0 W/m 22,5 km/h (4 Bft) 95,74 %
13.01.2023 07:44 7,9 C 7,2 C 4,4 C 85 % 1005,6 hPa 0,0 l/m 0 min 0 min 0 W/m 16,1 km/h (3 Bft) 93,62 %
13.01.2023 07:46 7,9 C 7,2 C 4,4 C 85 % 1005,6 hPa 0,0 l/m 0 min 0 min 0 W/m 32,2 km/h (5 Bft) 95,74 %
13.01.2023 07:48 7,9 C 7,2 C 4,4 C 85 % 1005,6 hPa 0,0 l/m 0 min 0 min 0 W/m 29,0 km/h (5 Bft) 95,74 %
13.01.2023 07:50 8,0 C 7,2 C 4,4 C 85 % 1005,7 hPa 0,0 l/m 0 min 0 min 0 W/m 25,7 km/h (4 Bft) 93,62 %
13.01.2023 07:52 8,0 C 7,2 C 4,4 C 85 % 1005,7 hPa 0,0 l/m 0 min 0 min 0 W/m 22,5 km/h (4 Bft) 95,65 %
13.01.2023 07:54 8,0 C 7,2 C 4,4 C 85 % 1005,7 hPa 0,0 l/m 0 min 0 min 0 W/m 19,3 km/h (3 Bft) 95,74 %
13.01.2023 07:56 8,0 C 7,2 C 4,4 C 85 % 1005,6 hPa 0,0 l/m 0 min 0 min 0 W/m 29,0 km/h (5 Bft) 93,62 %
13.01.2023 07:58 8,0 C 7,2 C 4,4 C 85 % 1005,7 hPa 0,0 l/m 0 min 0 min 0 W/m 25,7 km/h (4 Bft) 95,74 %
13.01.2023 08:00 8,0 C 7,2 C 4,4 C 85 % 1005,7 hPa 0,0 l/m 0 min 0 min 0 W/m 25,7 km/h (4 Bft) 93,62 %
13.01.2023 08:02 8,0 C 7,2 C 4,4 C 85 % 1005,8 hPa 0,0 l/m 0 min 0 min 0 W/m 22,5 km/h (4 Bft) 95,83 %
13.01.2023 08:04 8,0 C 7,2 C 4,4 C 85 % 1005,8 hPa 0,0 l/m 0 min 0 min 0 W/m 19,3 km/h (3 Bft) 95,74 %
13.01.2023 08:06 8,0 C 7,2 C 4,4 C 85 % 1005,8 hPa 0,0 l/m 0 min 0 min 0 W/m 35,4 km/h (5 Bft) 93,48 %
13.01.2023 08:08 7,9 C 7,2 C 4,4 C 85 % 1005,8 hPa 0,0 l/m 0 min 0 min 0 W/m 19,3 km/h (3 Bft) 95,74 %
13.01.2023 08:10 7,9 C 7,2 C 4,4 C 85 % 1005,8 hPa 0,0 l/m 0 min 0 min 0 W/m 22,5 km/h (4 Bft) 95,74 %
13.01.2023 08:12 7,9 C 7,2 C 4,4 C 85 % 1005,7 hPa 0,0 l/m 0 min 0 min 0 W/m 19,3 km/h (3 Bft) 93,62 %
13.01.2023 08:14 7,9 C 7,2 C 4,4 C 85 % 1005,7 hPa 0,0 l/m 0 min 0 min 0 W/m 35,4 km/h (5 Bft) 95,74 %
13.01.2023 08:16 7,9 C 7,2 C 4,4 C 85 % 1005,6 hPa 0,0 l/m 0 min 0 min 0 W/m 25,7 km/h (4 Bft) 93,62 %
13.01.2023 08:18 7,8 C 7,2 C 4,4 C 85 % 1005,7 hPa 0,0 l/m 0 min 0 min 0 W/m 19,3 km/h (3 Bft) 97,87 %
13.01.2023 08:20 7,8 C 7,2 C 4,4 C 85 % 1005,7 hPa 0,0 l/m 0 min 0 min 0 W/m 32,2 km/h (5 Bft) 97,83 %
13.01.2023 08:22 7,9 C 7,2 C 4,4 C 85 % 1005,8 hPa 0,0 l/m 0 min 0 min 0 W/m 22,5 km/h (4 Bft) 100,00 %
13.01.2023 08:24 7,8 C 7,2 C 4,4 C 85 % 1005,8 hPa 0,0 l/m 0 min 0 min 0 W/m 19,3 km/h (3 Bft) 95,74 %
13.01.2023 08:26 7,8 C 7,2 C 4,4 C 85 % 1005,9 hPa 0,0 l/m 0 min 0 min 0 W/m 19,3 km/h (3 Bft) 100,00 %
13.01.2023 08:28 7,8 C 6,7 C 3,9 C 85 % 1005,9 hPa 0,0 l/m 0 min 0 min 0 W/m 16,1 km/h (3 Bft) 100,00 %
13.01.2023 08:30 7,8 C 6,7 C 3,9 C 85 % 1006,0 hPa 0,0 l/m 0 min 0 min 0 W/m 19,3 km/h (3 Bft) 95,74 %
13.01.2023 08:32 7,8 C 6,7 C 3,9 C 85 % 1006,0 hPa 0,0 l/m 0 min 0 min 0 W/m 29,0 km/h (5 Bft) 100,00 %
13.01.2023 08:34 7,8 C 6,7 C 3,9 C 85 % 1006,0 hPa 0,0 l/m 0 min 0 min 0 W/m 25,7 km/h (4 Bft) 95,65 %
13.01.2023 08:36 7,8 C 7,2 C 4,4 C 85 % 1006,1 hPa 0,0 l/m 0 min 0 min 1 W/m 16,1 km/h (3 Bft) 97,87 %
13.01.2023 08:38 7,8 C 7,2 C 3,9 C 85 % 1006,0 hPa 0,0 l/m 0 min 0 min 5 W/m 16,1 km/h (3 Bft) 97,87 %
13.01.2023 08:40 7,8 C 7,2 C 4,4 C 85 % 1006,1 hPa 0,0 l/m 0 min 0 min 5 W/m 22,5 km/h (4 Bft) 97,87 %
13.01.2023 08:42 7,8 C 7,2 C 4,4 C 85 % 1006,1 hPa 0,0 l/m 0 min 0 min 5 W/m 22,5 km/h (4 Bft) 97,87 %
13.01.2023 08:44 7,8 C 7,2 C 4,4 C 85 % 1006,0 hPa 0,0 l/m 0 min 0 min 5 W/m 35,4 km/h (5 Bft) 97,87 %
13.01.2023 08:46 7,8 C 7,2 C 4,4 C 85 % 1006,0 hPa 0,0 l/m 0 min 0 min 5 W/m 25,7 km/h (4 Bft) 97,87 %
13.01.2023 08:48 7,8 C 7,2 C 4,4 C 85 % 1006,0 hPa 0,0 l/m 0 min 0 min 5 W/m 38,6 km/h (5 Bft) 97,83 %
13.01.2023 08:50 7,9 C 7,2 C 4,4 C 85 % 1006,1 hPa 0,0 l/m 0 min 0 min 6 W/m 35,4 km/h (5 Bft) 97,87 %
13.01.2023 08:52 7,9 C 7,2 C 4,4 C 84 % 1006,0 hPa 0,0 l/m 0 min 0 min 8 W/m 32,2 km/h (5 Bft) 97,87 %
13.01.2023 08:54 7,9 C 7,2 C 4,4 C 84 % 1006,1 hPa 0,0 l/m 0 min 0 min 7 W/m 22,5 km/h (4 Bft) 95,74 %
13.01.2023 08:56 7,9 C 7,2 C 4,4 C 85 % 1006,1 hPa 0,0 l/m 0 min 0 min 9 W/m 16,1 km/h (3 Bft) 95,74 %
13.01.2023 08:58 7,9 C 7,2 C 4,4 C 85 % 1006,0 hPa 0,0 l/m 0 min 0 min 10 W/m 25,7 km/h (4 Bft) 97,87 %
13.01.2023 09:00 7,9 C 7,2 C 4,4 C 84 % 1006,1 hPa 0,0 l/m 0 min 0 min 12 W/m 35,4 km/h (5 Bft) 97,83 %
13.01.2023 09:02 7,9 C 7,2 C 4,4 C 84 % 1006,1 hPa 0,0 l/m 0 min 0 min 15 W/m 22,5 km/h (4 Bft) 95,74 %
13.01.2023 09:04 7,9 C 7,2 C 4,4 C 84 % 1006,1 hPa 0,0 l/m 0 min 0 min 20 W/m 19,3 km/h (3 Bft) 100,00 %
13.01.2023 09:06 7,9 C 7,2 C 4,4 C 84 % 1006,2 hPa 0,0 l/m 0 min 0 min 23 W/m 22,5 km/h (4 Bft) 97,87 %
13.01.2023 09:08 7,8 C 7,2 C 4,4 C 84 % 1006,1 hPa 0,0 l/m 0 min 0 min 23 W/m 25,7 km/h (4 Bft) 100,00 %
13.01.2023 09:10 7,8 C 7,2 C 4,4 C 85 % 1006,3 hPa 0,0 l/m 0 min 0 min 19 W/m 32,2 km/h (5 Bft) 100,00 %
13.01.2023 09:12 7,8 C 7,2 C 4,4 C 85 % 1006,2 hPa 0,0 l/m 0 min 0 min 25 W/m 16,1 km/h (3 Bft) 100,00 %
13.01.2023 09:14 7,8 C 7,2 C 4,4 C 85 % 1006,1 hPa 0,0 l/m 0 min 0 min 26 W/m 25,7 km/h (4 Bft) 100,00 %
13.01.2023 09:16 7,8 C 7,2 C 4,4 C 85 % 1006,2 hPa 0,0 l/m 0 min 0 min 18 W/m 16,1 km/h (3 Bft) 100,00 %
13.01.2023 09:18 7,8 C 7,2 C 4,4 C 85 % 1006,2 hPa 0,0 l/m 0 min 0 min 13 W/m 19,3 km/h (3 Bft) 100,00 %
13.01.2023 09:20 7,9 C 7,2 C 4,4 C 85 % 1006,2 hPa 0,0 l/m 0 min 0 min 18 W/m 19,3 km/h (3 Bft) 100,00 %
13.01.2023 09:22 7,9 C 7,2 C 4,4 C 85 % 1006,3 hPa 0,0 l/m 0 min 0 min 20 W/m 25,7 km/h (4 Bft) 100,00 %
13.01.2023 09:24 7,9 C 7,2 C 4,4 C 85 % 1006,3 hPa 0,0 l/m 0 min 0 min 22 W/m 29,0 km/h (5 Bft) 100,00 %
13.01.2023 09:26 7,9 C 7,2 C 4,4 C 85 % 1006,3 hPa 0,0 l/m 0 min 0 min 25 W/m 25,7 km/h (4 Bft) 97,87 %
13.01.2023 09:28 7,9 C 7,2 C 4,4 C 85 % 1006,3 hPa 0,0 l/m 0 min 0 min 29 W/m 25,7 km/h (4 Bft) 100,00 %
13.01.2023 09:30 7,9 C 7,2 C 4,4 C 85 % 1006,4 hPa 0,0 l/m 0 min 0 min 34 W/m 19,3 km/h (3 Bft) 97,87 %
13.01.2023 09:32 7,9 C 7,2 C 4,4 C 85 % 1006,4 hPa 0,0 l/m 0 min 0 min 38 W/m 38,6 km/h (5 Bft) 100,00 %
13.01.2023 09:34 7,9 C 7,2 C 4,4 C 85 % 1006,4 hPa 0,0 l/m 0 min 0 min 47 W/m 29,0 km/h (5 Bft) 100,00 %
13.01.2023 09:36 8,0 C 7,8 C 4,4 C 85 % 1006,4 hPa 0,0 l/m 0 min 0 min 49 W/m 38,6 km/h (5 Bft) 100,00 %
13.01.2023 09:38 8,0 C 7,8 C 4,4 C 85 % 1006,5 hPa 0,0 l/m 0 min 0 min 51 W/m 25,7 km/h (4 Bft) 95,74 %
13.01.2023 09:40 8,1 C 7,8 C 4,4 C 85 % 1006,6 hPa 0,0 l/m 0 min 0 min 49 W/m 16,1 km/h (3 Bft) 100,00 %
13.01.2023 09:42 8,1 C 7,8 C 4,4 C 85 % 1006,5 hPa 0,0 l/m 0 min 0 min 46 W/m 29,0 km/h (5 Bft) 100,00 %
13.01.2023 09:44 8,1 C 7,8 C 4,4 C 85 % 1006,6 hPa 0,0 l/m 0 min 0 min 37 W/m 32,2 km/h (5 Bft) 97,87 %
13.01.2023 09:46 8,1 C 7,8 C 4,4 C 85 % 1006,4 hPa 0,0 l/m 0 min 0 min 42 W/m 35,4 km/h (5 Bft) 100,00 %
13.01.2023 09:48 8,1 C 7,8 C 4,4 C 85 % 1006,5 hPa 0,0 l/m 0 min 0 min 51 W/m 48,3 km/h (6 Bft) 100,00 %
13.01.2023 09:50 8,1 C 7,8 C 4,4 C 85 % 1006,4 hPa 0,0 l/m 0 min 0 min 67 W/m 29,0 km/h (5 Bft) 100,00 %
13.01.2023 09:52 8,1 C 7,8 C 4,4 C 85 % 1006,5 hPa 0,0 l/m 2 min 0 min 92 W/m 32,2 km/h (5 Bft) 100,00 %
13.01.2023 09:54 8,2 C 7,8 C 5,0 C 85 % 1006,6 hPa 0,0 l/m 2 min 0 min 111 W/m 32,2 km/h (5 Bft) 100,00 %
13.01.2023 09:56 8,2 C 8,3 C 5,0 C 85 % 1006,6 hPa 0,0 l/m 2 min 0 min 116 W/m 22,5 km/h (4 Bft) 95,65 %
13.01.2023 09:58 8,2 C 8,3 C 5,0 C 86 % 1006,6 hPa 0,0 l/m 2 min 0 min 106 W/m 45,1 km/h (6 Bft) 97,87 %
13.01.2023 10:00 8,3 C 7,8 C 5,0 C 85 % 1006,6 hPa 0,0 l/m 0 min 0 min 77 W/m 22,5 km/h (4 Bft) 100,00 %
13.01.2023 10:02 8,3 C 7,8 C 5,0 C 85 % 1006,6 hPa 0,0 l/m 0 min 0 min 60 W/m 19,3 km/h (3 Bft) 100,00 %
13.01.2023 10:04 8,3 C 7,8 C 5,0 C 85 % 1006,5 hPa 0,0 l/m 0 min 0 min 59 W/m 22,5 km/h (4 Bft) 100,00 %
13.01.2023 10:06 8,3 C 7,8 C 5,0 C 85 % 1006,6 hPa 0,0 l/m 0 min 0 min 65 W/m 32,2 km/h (5 Bft) 97,87 %
13.01.2023 10:08 8,3 C 7,8 C 5,0 C 85 % 1006,5 hPa 0,0 l/m 0 min 0 min 71 W/m 45,1 km/h (6 Bft) 97,83 %
13.01.2023 10:10 8,3 C 7,8 C 5,0 C 85 % 1006,7 hPa 0,0 l/m 0 min 0 min 69 W/m 29,0 km/h (5 Bft) 97,87 %
13.01.2023 10:12 8,3 C 7,8 C 5,0 C 85 % 1006,6 hPa 0,0 l/m 0 min 0 min 77 W/m 29,0 km/h (5 Bft) 97,87 %
13.01.2023 10:14 8,3 C 7,8 C 5,0 C 85 % 1006,6 hPa 0,0 l/m 0 min 0 min 98 W/m 22,5 km/h (4 Bft) 97,87 %
13.01.2023 10:16 8,3 C 8,3 C 5,0 C 85 % 1006,6 hPa 0,0 l/m 0 min 0 min 85 W/m 25,7 km/h (4 Bft) 97,87 %
13.01.2023 10:18 8,4 C 8,3 C 5,0 C 85 % 1006,7 hPa 0,0 l/m 0 min 0 min 95 W/m 19,3 km/h (3 Bft) 97,87 %
13.01.2023 10:20 8,4 C 8,3 C 5,0 C 85 % 1006,7 hPa 0,0 l/m 0 min 0 min 78 W/m 38,6 km/h (5 Bft) 95,74 %
13.01.2023 10:22 8,3 C 7,8 C 5,0 C 85 % 1006,7 hPa 0,0 l/m 0 min 0 min 61 W/m 25,7 km/h (4 Bft) 95,65 %
13.01.2023 10:24 8,3 C 7,8 C 5,0 C 85 % 1006,6 hPa 0,0 l/m 2 min 0 min 135 W/m 22,5 km/h (4 Bft) 93,62 %
13.01.2023 10:26 8,3 C 8,3 C 5,0 C 85 % 1006,7 hPa 0,0 l/m 2 min 0 min 168 W/m 16,1 km/h (3 Bft) 93,62 %
13.01.2023 10:28 8,3 C 8,3 C 5,0 C 85 % 1006,8 hPa 0,0 l/m 2 min 0 min 163 W/m 19,3 km/h (3 Bft) 97,87 %
13.01.2023 10:30 8,4 C 8,3 C 5,0 C 85 % 1006,8 hPa 0,0 l/m 2 min 0 min 168 W/m 38,6 km/h (5 Bft) 93,62 %
13.01.2023 10:32 8,4 C 8,3 C 5,0 C 85 % 1006,8 hPa 0,0 l/m 2 min 0 min 187 W/m 25,7 km/h (4 Bft) 91,49 %
13.01.2023 10:34 8,4 C 8,3 C 5,0 C 84 % 1006,7 hPa 0,0 l/m 2 min 0 min 164 W/m 45,1 km/h (6 Bft) 93,48 %
13.01.2023 10:36 8,4 C 8,3 C 5,0 C 84 % 1006,8 hPa 0,0 l/m 2 min 0 min 150 W/m 29,0 km/h (5 Bft) 93,62 %
13.01.2023 10:38 8,5 C 8,3 C 5,0 C 84 % 1006,8 hPa 0,0 l/m 2 min 0 min 153 W/m 25,7 km/h (4 Bft) 93,62 %
13.01.2023 10:40 8,5 C 8,3 C 5,0 C 84 % 1006,7 hPa 0,0 l/m 0 min 0 min 88 W/m 38,6 km/h (5 Bft) 91,49 %
13.01.2023 10:42 8,6 C 8,3 C 5,0 C 84 % 1006,7 hPa 0,0 l/m 0 min 0 min 78 W/m 22,5 km/h (4 Bft) 89,36 %
13.01.2023 10:44 8,6 C 8,3 C 5,0 C 84 % 1006,8 hPa 0,0 l/m 2 min 0 min 190 W/m 16,1 km/h (3 Bft) 93,62 %
13.01.2023 10:46 8,6 C 8,3 C 5,0 C 84 % 1006,9 hPa 0,0 l/m 2 min 0 min 152 W/m 22,5 km/h (4 Bft) 95,74 %
13.01.2023 10:48 8,6 C 8,3 C 5,0 C 84 % 1006,9 hPa 0,0 l/m 2 min 0 min 194 W/m 22,5 km/h (4 Bft) 93,48 %
13.01.2023 10:50 8,6 C 8,3 C 5,0 C 84 % 1006,9 hPa 0,0 l/m 2 min 0 min 198 W/m 29,0 km/h (5 Bft) 93,62 %
13.01.2023 10:52 8,7 C 8,3 C 5,0 C 84 % 1007,0 hPa 0,0 l/m 2 min 0 min 211 W/m 22,5 km/h (4 Bft) 93,62 %
13.01.2023 10:54 8,7 C 8,9 C 5,0 C 84 % 1007,0 hPa 0,0 l/m 2 min 0 min 219 W/m 22,5 km/h (4 Bft) 93,62 %
13.01.2023 10:56 8,7 C 8,9 C 5,0 C 83 % 1006,9 hPa 0,0 l/m 2 min 0 min 194 W/m 22,5 km/h (4 Bft) 93,62 %
13.01.2023 10:58 8,8 C 8,9 C 5,0 C 83 % 1007,0 hPa 0,0 l/m 2 min 0 min 199 W/m 22,5 km/h (4 Bft) 91,49 %
13.01.2023 11:00 8,8 C 8,9 C 5,0 C 83 % 1007,1 hPa 0,0 l/m 0 min 0 min 91 W/m 22,5 km/h (4 Bft) 95,74 %
13.01.2023 11:02 8,8 C 8,9 C 5,0 C 83 % 1007,0 hPa 0,0 l/m 0 min 0 min 76 W/m 25,7 km/h (4 Bft) 93,48 %
13.01.2023 11:04 8,8 C 8,3 C 5,0 C 83 % 1006,9 hPa 0,0 l/m 0 min 0 min 78 W/m 41,8 km/h (6 Bft) 95,74 %
13.01.2023 11:06 8,8 C 8,3 C 5,0 C 83 % 1007,1 hPa 0,0 l/m 0 min 0 min 77 W/m 29,0 km/h (5 Bft) 93,62 %
13.01.2023 11:08 8,8 C 8,3 C 5,0 C 83 % 1007,1 hPa 0,0 l/m 0 min 0 min 77 W/m 25,7 km/h (4 Bft) 95,74 %
13.01.2023 11:10 8,8 C 8,9 C 5,0 C 83 % 1007,1 hPa 0,0 l/m 0 min 0 min 114 W/m 22,5 km/h (4 Bft) 94,74 %
13.01.2023 11:12 8,8 C 8,9 C 5,0 C 83 % 1007,0 hPa 0,0 l/m 2 min 0 min 232 W/m 38,6 km/h (5 Bft) 97,87 %
13.01.2023 11:14 8,9 C 8,9 C 5,0 C 83 % 1006,9 hPa 0,0 l/m 2 min 0 min 146 W/m 38,6 km/h (5 Bft) 97,87 %
13.01.2023 11:16 8,9 C 8,9 C 5,0 C 82 % 1007,0 hPa 0,0 l/m 0 min 0 min 66 W/m 38,6 km/h (5 Bft) 100,00 %
13.01.2023 11:18 8,9 C 8,3 C 5,0 C 82 % 1007,0 hPa 0,0 l/m 0 min 0 min 72 W/m 22,5 km/h (4 Bft) 95,74 %
13.01.2023 11:20 8,9 C 8,3 C 5,0 C 82 % 1007,0 hPa 0,0 l/m 0 min 0 min 91 W/m 25,7 km/h (4 Bft) 100,00 %
13.01.2023 11:22 8,9 C 8,9 C 5,0 C 82 % 1007,0 hPa 0,0 l/m 0 min 0 min 81 W/m 29,0 km/h (5 Bft) 100,00 %
13.01.2023 11:24 8,8 C 8,9 C 5,0 C 82 % 1006,9 hPa 0,0 l/m 0 min 0 min 126 W/m 29,0 km/h (5 Bft) 100,00 %
13.01.2023 11:26 8,9 C 8,9 C 5,0 C 82 % 1007,0 hPa 0,0 l/m 2 min 0 min 162 W/m 35,4 km/h (5 Bft) 97,87 %
13.01.2023 11:28 8,9 C 8,9 C 5,0 C 82 % 1007,0 hPa 0,0 l/m 2 min 0 min 172 W/m 45,1 km/h (6 Bft) 93,62 %
13.01.2023 11:30 9,0 C 9,4 C 5,6 C 82 % 1007,0 hPa 0,0 l/m 2 min 0 min 247 W/m 19,3 km/h (3 Bft) 97,87 %
13.01.2023 11:32 9,1 C 9,4 C 5,6 C 82 % 1007,0 hPa 0,0 l/m 2 min 0 min 234 W/m 22,5 km/h (4 Bft) 100,00 %
13.01.2023 11:34 9,1 C 9,4 C 5,6 C 82 % 1007,0 hPa 0,0 l/m 0 min 0 min 129 W/m 22,5 km/h (4 Bft) 100,00 %
13.01.2023 11:36 9,2 C 9,4 C 5,6 C 82 % 1007,0 hPa 0,0 l/m 0 min 0 min 126 W/m 32,2 km/h (5 Bft) 97,87 %
13.01.2023 11:38 9,2 C 9,4 C 5,6 C 82 % 1007,0 hPa 0,0 l/m 0 min 0 min 146 W/m 25,7 km/h (4 Bft) 97,87 %
13.01.2023 11:40 9,2 C 9,4 C 5,6 C 81 % 1007,0 hPa 0,0 l/m 2 min 0 min 162 W/m 38,6 km/h (5 Bft) 97,87 %
13.01.2023 11:42 9,2 C 10,0 C 5,6 C 81 % 1007,0 hPa 0,0 l/m 2 min 0 min 207 W/m 22,5 km/h (4 Bft) 100,00 %
13.01.2023 11:44 9,3 C 10,0 C 5,6 C 81 % 1006,9 hPa 0,0 l/m 2 min 0 min 174 W/m 48,3 km/h (6 Bft) 100,00 %
13.01.2023 11:46 9,3 C 10,6 C 5,6 C 81 % 1007,0 hPa 0,0 l/m 2 min 0 min 200 W/m 25,7 km/h (4 Bft) 100,00 %
13.01.2023 11:48 9,4 C 10,6 C 5,6 C 81 % 1007,0 hPa 0,0 l/m 2 min 0 min 229 W/m 41,8 km/h (6 Bft) 100,00 %
13.01.2023 11:50 9,5 C 10,6 C 6,1 C 81 % 1006,9 hPa 0,0 l/m 2 min 0 min 234 W/m 22,5 km/h (4 Bft) 100,00 %
13.01.2023 11:52 9,6 C 10,6 C 6,1 C 81 % 1006,9 hPa 0,0 l/m 2 min 0 min 255 W/m 41,8 km/h (6 Bft) 97,87 %
13.01.2023 11:54 9,6 C 10,6 C 6,1 C 80 % 1006,9 hPa 0,0 l/m 2 min 0 min 315 W/m 32,2 km/h (5 Bft) 100,00 %
13.01.2023 11:56 9,7 C 10,6 C 6,1 C 80 % 1007,0 hPa 0,0 l/m 2 min 0 min 258 W/m 29,0 km/h (5 Bft) 100,00 %
13.01.2023 11:58 9,7 C 10,6 C 6,1 C 80 % 1007,2 hPa 0,0 l/m 2 min 0 min 189 W/m 29,0 km/h (5 Bft) 100,00 %
13.01.2023 12:00 9,7 C 10,0 C 6,1 C 79 % 1007,1 hPa 0,0 l/m 0 min 0 min 134 W/m 38,6 km/h (5 Bft) 100,00 %
13.01.2023 12:02 9,7 C 9,4 C 6,1 C 79 % 1007,0 hPa 0,0 l/m 0 min 0 min 115 W/m 29,0 km/h (5 Bft) 100,00 %
13.01.2023 12:04 9,7 C 9,4 C 6,1 C 79 % 1007,1 hPa 0,0 l/m 0 min 0 min 110 W/m 32,2 km/h (5 Bft) 100,00 %
13.01.2023 12:07 9,7 C 9,4 C 6,1 C 79 % 1007,2 hPa 0,0 l/m 0 min 0 min 110 W/m 32,2 km/h (5 Bft) 98,57 %
13.01.2023 12:08 9,7 C 9,4 C 6,1 C 79 % 1007,2 hPa 0,0 l/m 0 min 0 min 102 W/m 38,6 km/h (5 Bft) 100,00 %
13.01.2023 12:10 9,6 C 9,4 C 5,6 C 79 % 1007,2 hPa 0,0 l/m 0 min 0 min 78 W/m 25,7 km/h (4 Bft) 100,00 %
13.01.2023 12:12 9,6 C 8,9 C 5,6 C 79 % 1007,2 hPa 0,0 l/m 0 min 0 min 73 W/m 19,3 km/h (3 Bft) 97,83 %
13.01.2023 12:14 9,6 C 8,9 C 5,6 C 79 % 1007,3 hPa 0,0 l/m 0 min 0 min 62 W/m 29,0 km/h (5 Bft) 100,00 %
13.01.2023 12:16 9,5 C 8,9 C 5,6 C 79 % 1007,1 hPa 0,0 l/m 0 min 0 min 50 W/m 22,5 km/h (4 Bft) 100,00 %
13.01.2023 12:18 9,5 C 8,9 C 5,6 C 79 % 1007,2 hPa 0,0 l/m 0 min 0 min 41 W/m 35,4 km/h (5 Bft) 100,00 %
13.01.2023 12:20 9,4 C 8,9 C 5,6 C 79 % 1007,3 hPa 0,0 l/m 0 min 0 min 43 W/m 22,5 km/h (4 Bft) 100,00 %
13.01.2023 12:22 9,4 C 8,9 C 5,6 C 80 % 1007,4 hPa 0,0 l/m 0 min 0 min 63 W/m 22,5 km/h (4 Bft) 100,00 %
13.01.2023 12:24 9,4 C 8,9 C 5,6 C 79 % 1007,4 hPa 0,0 l/m 0 min 0 min 59 W/m 35,4 km/h (5 Bft) 100,00 %
13.01.2023 12:26 9,3 C 8,9 C 5,6 C 79 % 1007,4 hPa 0,0 l/m 0 min 0 min 43 W/m 29,0 km/h (5 Bft) 100,00 %
13.01.2023 12:28 9,3 C 8,9 C 5,6 C 79 % 1007,4 hPa 0,0 l/m 0 min 0 min 43 W/m 22,5 km/h (4 Bft) 95,74 %
13.01.2023 12:30 9,3 C 8,9 C 5,6 C 79 % 1007,5 hPa 0,0 l/m 0 min 0 min 61 W/m 19,3 km/h (3 Bft) 100,00 %
13.01.2023 12:32 9,4 C 8,9 C 5,6 C 79 % 1007,3 hPa 0,0 l/m 0 min 0 min 116 W/m 25,7 km/h (4 Bft) 100,00 %
13.01.2023 12:34 9,4 C 9,4 C 5,6 C 79 % 1007,4 hPa 0,0 l/m 2 min 0 min 181 W/m 41,8 km/h (6 Bft) 100,00 %
13.01.2023 12:36 9,4 C 9,4 C 5,6 C 79 % 1007,4 hPa 0,0 l/m 0 min 0 min 166 W/m 19,3 km/h (3 Bft) 100,00 %
13.01.2023 12:38 9,4 C 9,4 C 5,6 C 79 % 1007,4 hPa 0,0 l/m 0 min 0 min 113 W/m 22,5 km/h (4 Bft) 97,83 %
13.01.2023 12:40 9,4 C 9,4 C 5,6 C 79 % 1007,6 hPa 0,0 l/m 0 min 0 min 92 W/m 19,3 km/h (3 Bft) 97,87 %
13.01.2023 12:42 9,4 C 8,9 C 5,6 C 80 % 1007,5 hPa 0,0 l/m 0 min 2 min 77 W/m 12,9 km/h (3 Bft) 100,00 %
13.01.2023 12:44 9,4 C 8,9 C 5,6 C 80 % 1007,5 hPa 0,0 l/m 0 min 2 min 89 W/m 19,3 km/h (3 Bft) 97,87 %
13.01.2023 12:46 9,4 C 8,9 C 5,6 C 81 % 1007,5 hPa 0,0 l/m 0 min 2 min 123 W/m 19,3 km/h (3 Bft) 97,87 %
13.01.2023 12:48 9,4 C 8,9 C 5,6 C 81 % 1007,5 hPa 0,0 l/m 0 min 2 min 107 W/m 22,5 km/h (4 Bft) 95,74 %
13.01.2023 12:50 9,4 C 8,9 C 5,0 C 81 % 1007,5 hPa 0,0 l/m 0 min 2 min 107 W/m 22,5 km/h (4 Bft) 95,74 %
13.01.2023 12:52 9,3 C 8,9 C 5,0 C 82 % 1007,5 hPa 0,0 l/m 0 min 2 min 84 W/m 22,5 km/h (4 Bft) 93,48 %
13.01.2023 12:54 9,3 C 8,9 C 4,4 C 82 % 1007,5 hPa 0,0 l/m 0 min 2 min 73 W/m 25,7 km/h (4 Bft) 95,74 %
13.01.2023 12:56 9,3 C 8,3 C 4,4 C 82 % 1007,6 hPa 0,0 l/m 0 min 2 min 75 W/m 32,2 km/h (5 Bft) 91,49 %
13.01.2023 12:58 9,3 C 8,3 C 4,4 C 82 % 1007,6 hPa 0,0 l/m 0 min 2 min 74 W/m 16,1 km/h (3 Bft) 95,74 %
13.01.2023 13:00 9,2 C 8,3 C 4,4 C 82 % 1007,5 hPa 0,0 l/m 0 min 2 min 84 W/m 22,5 km/h (4 Bft) 95,74 %
13.01.2023 13:02 9,2 C 8,3 C 4,4 C 82 % 1007,4 hPa 0,0 l/m 0 min 2 min 118 W/m 45,1 km/h (6 Bft) 95,74 %
13.01.2023 13:04 9,2 C 8,3 C 4,4 C 82 % 1007,5 hPa 0,0 l/m 2 min 2 min 180 W/m 22,5 km/h (4 Bft) 91,30 %
13.01.2023 13:06 9,2 C 8,3 C 5,0 C 82 % 1007,5 hPa 0,0 l/m 0 min 2 min 151 W/m 22,5 km/h (4 Bft) 93,62 %
13.01.2023 13:08 9,2 C 8,9 C 5,0 C 82 % 1007,5 hPa 0,0 l/m 0 min 2 min 141 W/m 35,4 km/h (5 Bft) 95,74 %
13.01.2023 13:10 9,2 C 8,9 C 5,0 C 82 % 1007,5 hPa 0,0 l/m 0 min 2 min 139 W/m 19,3 km/h (3 Bft) 93,62 %
13.01.2023 13:12 9,2 C 8,9 C 5,0 C 82 % 1007,5 hPa 0,0 l/m 0 min 2 min 107 W/m 29,0 km/h (5 Bft) 93,62 %
13.01.2023 13:14 9,2 C 8,9 C 5,0 C 82 % 1007,6 hPa 0,0 l/m 0 min 2 min 90 W/m 25,7 km/h (4 Bft) 93,62 %
13.01.2023 13:16 9,2 C 8,9 C 5,0 C 82 % 1007,6 hPa 0,0 l/m 0 min 2 min 76 W/m 29,0 km/h (5 Bft) 95,74 %
13.01.2023 13:18 9,2 C 8,9 C 5,0 C 82 % 1007,7 hPa 0,0 l/m 0 min 2 min 93 W/m 38,6 km/h (5 Bft) 95,65 %
13.01.2023 13:20 9,2 C 8,9 C 5,0 C 83 % 1007,7 hPa 0,0 l/m 2 min 2 min 175 W/m 19,3 km/h (3 Bft) 91,49 %
13.01.2023 13:22 9,2 C 8,9 C 5,0 C 84 % 1007,8 hPa 0,0 l/m 0 min 2 min 131 W/m 16,1 km/h (3 Bft) 93,62 %
13.01.2023 13:24 9,2 C 8,9 C 5,0 C 84 % 1007,8 hPa 0,0 l/m 0 min 2 min 131 W/m 32,2 km/h (5 Bft) 97,87 %
13.01.2023 13:26 9,1 C 8,9 C 5,0 C 84 % 1007,7 hPa 0,0 l/m 2 min 2 min 210 W/m 19,3 km/h (3 Bft) 93,62 %
13.01.2023 13:28 9,1 C 8,9 C 5,0 C 84 % 1007,9 hPa 0,0 l/m 2 min 2 min 194 W/m 35,4 km/h (5 Bft) 95,74 %
13.01.2023 13:30 9,1 C 8,9 C 5,0 C 84 % 1007,9 hPa 0,0 l/m 2 min 2 min 178 W/m 25,7 km/h (4 Bft) 93,62 %
13.01.2023 13:32 9,1 C 8,9 C 5,0 C 84 % 1008,0 hPa 0,0 l/m 0 min 2 min 125 W/m 16,1 km/h (3 Bft) 95,65 %
13.01.2023 13:34 9,1 C 9,4 C 5,0 C 85 % 1008,0 hPa 0,0 l/m 2 min 2 min 168 W/m 19,3 km/h (3 Bft) 95,74 %
13.01.2023 13:36 9,2 C 10,0 C 5,6 C 85 % 1008,2 hPa 0,0 l/m 2 min 0 min 237 W/m 16,1 km/h (3 Bft) 95,74 %
13.01.2023 13:38 9,2 C 9,4 C 5,6 C 84 % 1008,2 hPa 0,0 l/m 2 min 0 min 161 W/m 25,7 km/h (4 Bft) 87,23 %
13.01.2023 13:40 9,2 C 9,4 C 5,6 C 84 % 1008,1 hPa 0,0 l/m 0 min 0 min 126 W/m 29,0 km/h (5 Bft) 96,36 %
13.01.2023 13:42 9,1 C 8,9 C 5,0 C 84 % 1008,1 hPa 0,0 l/m 0 min 0 min 147 W/m 22,5 km/h (4 Bft) 97,83 %
13.01.2023 13:44 9,1 C 8,9 C 5,6 C 84 % 1008,1 hPa 0,0 l/m 0 min 0 min 49 W/m 22,5 km/h (4 Bft) 82,98 %
13.01.2023 13:46 9,1 C 8,9 C 5,6 C 84 % 1008,3 hPa 0,0 l/m 0 min 0 min 62 W/m 32,2 km/h (5 Bft) 67,50 %
13.01.2023 13:48 9,1 C 8,9 C 5,6 C 84 % 1008,2 hPa 0,0 l/m 0 min 0 min 99 W/m 16,1 km/h (3 Bft) 95,74 %
13.01.2023 13:50 9,1 C 8,9 C 5,6 C 84 % 1008,2 hPa 0,0 l/m 0 min 0 min 99 W/m 19,3 km/h (3 Bft) 97,87 %
13.01.2023 13:52 9,1 C 8,9 C 5,6 C 84 % 1008,2 hPa 0,0 l/m 0 min 0 min 80 W/m 19,3 km/h (3 Bft) 97,87 %
13.01.2023 13:54 9,1 C 8,9 C 5,6 C 84 % 1008,3 hPa 0,0 l/m 0 min 0 min 73 W/m 25,7 km/h (4 Bft) 97,87 %
13.01.2023 13:56 9,1 C 8,9 C 5,6 C 84 % 1008,2 hPa 0,0 l/m 0 min 0 min 65 W/m 19,3 km/h (3 Bft) 95,65 %
13.01.2023 13:58 9,1 C 8,3 C 5,0 C 84 % 1008,3 hPa 0,0 l/m 0 min 0 min 69 W/m 22,5 km/h (4 Bft) 97,87 %
13.01.2023 14:00 9,0 C 8,3 C 5,0 C 85 % 1008,3 hPa 0,0 l/m 0 min 0 min 63 W/m 25,7 km/h (4 Bft) 97,87 %
13.01.2023 14:02 8,9 C 8,3 C 5,0 C 84 % 1008,3 hPa 0,0 l/m 0 min 0 min 55 W/m 32,2 km/h (5 Bft) 97,87 %
13.01.2023 14:04 8,8 C 8,3 C 5,0 C 84 % 1008,3 hPa 0,0 l/m 0 min 0 min 47 W/m 38,6 km/h (5 Bft) 97,92 %
13.01.2023 14:06 8,8 C 8,3 C 5,0 C 85 % 1008,4 hPa 0,0 l/m 0 min 0 min 43 W/m 29,0 km/h (5 Bft) 95,74 %
13.01.2023 14:08 8,8 C 8,3 C 5,0 C 85 % 1008,4 hPa 0,0 l/m 0 min 0 min 46 W/m 19,3 km/h (3 Bft) 93,48 %
13.01.2023 14:10 8,8 C 8,3 C 5,0 C 85 % 1008,4 hPa 0,0 l/m 0 min 0 min 47 W/m 29,0 km/h (5 Bft) 95,74 %
13.01.2023 14:12 8,7 C 8,3 C 5,0 C 85 % 1008,4 hPa 0,0 l/m 0 min 0 min 41 W/m 25,7 km/h (4 Bft) 97,87 %
13.01.2023 14:14 8,7 C 8,3 C 5,0 C 85 % 1008,5 hPa 0,0 l/m 0 min 0 min 36 W/m 35,4 km/h (5 Bft) 97,87 %
13.01.2023 14:16 8,7 C 8,3 C 5,0 C 85 % 1008,4 hPa 0,0 l/m 0 min 0 min 41 W/m 22,5 km/h (4 Bft) 95,74 %
13.01.2023 14:18 8,7 C 8,3 C 5,0 C 85 % 1008,5 hPa 0,0 l/m 0 min 0 min 39 W/m 19,3 km/h (3 Bft) 100,00 %
13.01.2023 14:20 8,7 C 8,3 C 5,0 C 85 % 1008,5 hPa 0,0 l/m 0 min 0 min 42 W/m 25,7 km/h (4 Bft) 100,00 %
13.01.2023 14:22 8,7 C 8,3 C 5,0 C 85 % 1008,5 hPa 0,0 l/m 0 min 0 min 43 W/m 22,5 km/h (4 Bft) 100,00 %
13.01.2023 14:24 8,7 C 8,3 C 5,0 C 85 % 1008,5 hPa 0,0 l/m 0 min 0 min 43 W/m 25,7 km/h (4 Bft) 100,00 %
13.01.2023 14:26 8,7 C 8,3 C 5,0 C 85 % 1008,5 hPa 0,0 l/m 0 min 0 min 32 W/m 16,1 km/h (3 Bft) 96,30 %
13.01.2023 14:28 8,7 C 8,3 C 5,0 C 85 % 1008,5 hPa 0,0 l/m 0 min 0 min 21 W/m 19,3 km/h (3 Bft) 97,87 %
13.01.2023 14:30 8,7 C 8,3 C 5,0 C 85 % 1008,6 hPa 0,0 l/m 0 min 0 min 16 W/m 12,9 km/h (3 Bft) 100,00 %
13.01.2023 14:32 8,7 C 8,3 C 5,0 C 85 % 1008,6 hPa 0,0 l/m 0 min 0 min 17 W/m 19,3 km/h (3 Bft) 100,00 %
13.01.2023 14:34 8,7 C 8,3 C 5,0 C 85 % 1008,5 hPa 0,0 l/m 0 min 0 min 18 W/m 22,5 km/h (4 Bft) 97,87 %
13.01.2023 14:36 8,7 C 8,3 C 5,0 C 85 % 1008,6 hPa 0,0 l/m 0 min 0 min 25 W/m 25,7 km/h (4 Bft) 100,00 %
13.01.2023 14:38 8,7 C 8,3 C 5,0 C 85 % 1008,6 hPa 0,0 l/m 0 min 0 min 21 W/m 16,1 km/h (3 Bft) 100,00 %
13.01.2023 14:40 8,7 C 8,3 C 5,0 C 85 % 1008,7 hPa 0,0 l/m 0 min 0 min 18 W/m 22,5 km/h (4 Bft) 97,87 %
13.01.2023 14:42 8,7 C 8,3 C 5,0 C 85 % 1008,6 hPa 0,0 l/m 0 min 0 min 23 W/m 32,2 km/h (5 Bft) 97,37 %
13.01.2023 14:44 8,7 C 8,3 C 5,0 C 85 % 1008,7 hPa 0,0 l/m 0 min 0 min 22 W/m 19,3 km/h (3 Bft) 100,00 %
13.01.2023 14:46 8,8 C 8,3 C 5,0 C 84 % 1008,8 hPa 0,0 l/m 0 min 0 min 19 W/m 22,5 km/h (4 Bft) 97,87 %
13.01.2023 14:48 8,8 C 8,3 C 5,0 C 84 % 1008,8 hPa 0,0 l/m 0 min 0 min 18 W/m 32,2 km/h (5 Bft) 97,87 %
13.01.2023 14:50 8,8 C 8,3 C 5,0 C 84 % 1008,9 hPa 0,0 l/m 0 min 0 min 19 W/m 16,1 km/h (3 Bft) 97,87 %
13.01.2023 14:52 8,8 C 8,3 C 5,0 C 84 % 1008,9 hPa 0,0 l/m 0 min 0 min 20 W/m 19,3 km/h (3 Bft) 93,48 %
13.01.2023 14:54 8,8 C 8,3 C 5,0 C 84 % 1008,9 hPa 0,0 l/m 0 min 0 min 19 W/m 32,2 km/h (5 Bft) 97,87 %
13.01.2023 14:56 8,8 C 8,3 C 4,4 C 84 % 1008,9 hPa 0,0 l/m 0 min 2 min 22 W/m 25,7 km/h (4 Bft) 97,87 %
13.01.2023 14:58 8,8 C 8,3 C 4,4 C 85 % 1008,9 hPa 0,0 l/m 0 min 2 min 17 W/m 22,5 km/h (4 Bft) 95,74 %
13.01.2023 15:00 8,8 C 8,3 C 4,4 C 85 % 1008,9 hPa 0,0 l/m 0 min 2 min 12 W/m 12,9 km/h (3 Bft) 97,87 %
13.01.2023 15:02 8,8 C 7,8 C 4,4 C 85 % 1009,0 hPa 0,0 l/m 0 min 2 min 12 W/m 16,1 km/h (3 Bft) 97,92 %
13.01.2023 15:04 8,8 C 7,8 C 4,4 C 85 % 1009,0 hPa 0,0 l/m 0 min 2 min 10 W/m 25,7 km/h (4 Bft) 95,65 %
13.01.2023 15:06 8,7 C 7,8 C 4,4 C 86 % 1009,0 hPa 0,0 l/m 0 min 2 min 11 W/m 12,9 km/h (3 Bft) 97,87 %
13.01.2023 15:08 8,7 C 7,8 C 4,4 C 86 % 1009,0 hPa 0,0 l/m 0 min 2 min 11 W/m 22,5 km/h (4 Bft) 95,74 %
13.01.2023 15:10 8,7 C 7,8 C 4,4 C 86 % 1009,1 hPa 0,0 l/m 0 min 2 min 11 W/m 19,3 km/h (3 Bft) 95,74 %
13.01.2023 15:12 8,7 C 7,8 C 4,4 C 86 % 1009,1 hPa 0,0 l/m 0 min 2 min 9 W/m 16,1 km/h (3 Bft) 95,74 %
13.01.2023 15:14 8,7 C 7,8 C 4,4 C 86 % 1009,1 hPa 0,0 l/m 0 min 2 min 12 W/m 19,3 km/h (3 Bft) 97,87 %
13.01.2023 15:16 8,6 C 7,8 C 4,4 C 86 % 1009,2 hPa 0,0 l/m 0 min 2 min 12 W/m 16,1 km/h (3 Bft) 95,74 %
13.01.2023 15:18 8,6 C 7,8 C 4,4 C 86 % 1009,1 hPa 0,0 l/m 0 min 2 min 13 W/m 32,2 km/h (5 Bft) 100,00 %
13.01.2023 15:20 8,6 C 7,8 C 4,4 C 86 % 1009,2 hPa 0,0 l/m 0 min 2 min 17 W/m 19,3 km/h (3 Bft) 95,74 %
13.01.2023 15:22 8,6 C 7,8 C 4,4 C 86 % 1009,3 hPa 0,0 l/m 0 min 2 min 29 W/m 19,3 km/h (3 Bft) 100,00 %
13.01.2023 15:24 8,6 C 7,8 C 4,4 C 86 % 1009,3 hPa 0,0 l/m 0 min 2 min 28 W/m 19,3 km/h (3 Bft) 100,00 %
13.01.2023 15:26 8,6 C 7,8 C 4,4 C 86 % 1009,4 hPa 0,0 l/m 0 min 0 min 26 W/m 16,1 km/h (3 Bft) 100,00 %
13.01.2023 15:28 8,6 C 7,8 C 4,4 C 86 % 1009,4 hPa 0,0 l/m 0 min 0 min 27 W/m 25,7 km/h (4 Bft) 100,00 %
13.01.2023 15:30 8,6 C 7,8 C 4,4 C 86 % 1009,4 hPa 0,0 l/m 0 min 0 min 36 W/m 22,5 km/h (4 Bft) 100,00 %
13.01.2023 15:32 8,6 C 8,3 C 4,4 C 87 % 1009,6 hPa 0,0 l/m 0 min 0 min 46 W/m 16,1 km/h (3 Bft) 100,00 %
13.01.2023 15:34 8,6 C 7,8 C 4,4 C 87 % 1009,5 hPa 0,0 l/m 0 min 0 min 44 W/m 35,4 km/h (5 Bft) 97,87 %
13.01.2023 15:36 8,6 C 7,8 C 4,4 C 87 % 1009,7 hPa 0,0 l/m 0 min 0 min 49 W/m 22,5 km/h (4 Bft) 97,87 %
13.01.2023 15:38 8,6 C 8,3 C 5,0 C 87 % 1009,7 hPa 0,0 l/m 0 min 0 min 71 W/m 25,7 km/h (4 Bft) 95,74 %
13.01.2023 15:40 8,6 C 8,3 C 5,0 C 87 % 1009,7 hPa 0,0 l/m 2 min 0 min 80 W/m 25,7 km/h (4 Bft) 100,00 %
13.01.2023 15:42 8,6 C 8,3 C 5,0 C 87 % 1009,7 hPa 0,0 l/m 2 min 0 min 89 W/m 19,3 km/h (3 Bft) 97,87 %
13.01.2023 15:44 8,6 C 8,3 C 5,0 C 87 % 1009,8 hPa 0,0 l/m 2 min 0 min 86 W/m 22,5 km/h (4 Bft) 97,83 %
13.01.2023 15:46 8,6 C 8,3 C 5,0 C 87 % 1009,8 hPa 0,0 l/m 2 min 0 min 68 W/m 22,5 km/h (4 Bft) 97,87 %
13.01.2023 15:48 8,6 C 8,3 C 5,0 C 87 % 1009,8 hPa 0,0 l/m 0 min 0 min 64 W/m 25,7 km/h (4 Bft) 97,87 %
13.01.2023 15:50 8,6 C 8,3 C 5,0 C 87 % 1009,7 hPa 0,0 l/m 0 min 0 min 54 W/m 19,3 km/h (3 Bft) 95,74 %
13.01.2023 15:52 8,6 C 8,3 C 5,0 C 87 % 1009,8 hPa 0,0 l/m 0 min 0 min 42 W/m 16,1 km/h (3 Bft) 97,87 %
13.01.2023 15:54 8,6 C 7,8 C 5,0 C 88 % 1009,9 hPa 0,0 l/m 0 min 0 min 34 W/m 19,3 km/h (3 Bft) 94,00 %
13.01.2023 15:56 8,6 C 7,8 C 5,0 C 88 % 1009,8 hPa 0,0 l/m 0 min 0 min 28 W/m 25,7 km/h (4 Bft) 97,87 %
13.01.2023 15:58 8,5 C 7,8 C 5,0 C 88 % 1009,9 hPa 0,0 l/m 0 min 0 min 25 W/m 12,9 km/h (3 Bft) 95,74 %
13.01.2023 16:00 8,5 C 7,8 C 4,4 C 88 % 1009,9 hPa 0,0 l/m 0 min 0 min 28 W/m 25,7 km/h (4 Bft) 95,74 %
13.01.2023 16:02 8,5 C 7,8 C 4,4 C 87 % 1009,9 hPa 0,0 l/m 0 min 0 min 36 W/m 38,6 km/h (5 Bft) 93,62 %
13.01.2023 16:04 8,5 C 7,8 C 4,4 C 87 % 1010,0 hPa 0,0 l/m 0 min 0 min 37 W/m 25,7 km/h (4 Bft) 97,87 %
13.01.2023 16:06 8,5 C 7,8 C 4,4 C 87 % 1010,0 hPa 0,0 l/m 0 min 0 min 30 W/m 16,1 km/h (3 Bft) 95,74 %
13.01.2023 16:08 8,5 C 7,8 C 4,4 C 87 % 1010,0 hPa 0,0 l/m 0 min 2 min 25 W/m 25,7 km/h (4 Bft) 95,74 %
13.01.2023 16:10 8,5 C 7,8 C 4,4 C 87 % 1010,0 hPa 0,0 l/m 0 min 0 min 20 W/m 25,7 km/h (4 Bft) 95,65 %
13.01.2023 16:12 8,5 C 7,8 C 4,4 C 87 % 1010,1 hPa 0,0 l/m 0 min 0 min 23 W/m 22,5 km/h (4 Bft) 91,49 %
13.01.2023 16:14 8,5 C 7,8 C 4,4 C 87 % 1010,2 hPa 0,0 l/m 0 min 0 min 25 W/m 16,1 km/h (3 Bft) 95,74 %
13.01.2023 16:16 8,5 C 7,8 C 4,4 C 87 % 1010,3 hPa 0,0 l/m 0 min 0 min 22 W/m 12,9 km/h (3 Bft) 95,74 %
13.01.2023 16:18 8,5 C 7,8 C 4,4 C 87 % 1010,3 hPa 0,0 l/m 0 min 0 min 20 W/m 16,1 km/h (3 Bft) 94,00 %
13.01.2023 16:20 8,5 C 7,8 C 4,4 C 87 % 1010,3 hPa 0,0 l/m 0 min 0 min 21 W/m 19,3 km/h (3 Bft) 94,59 %
13.01.2023 16:22 8,4 C 7,8 C 4,4 C 87 % 1010,4 hPa 0,0 l/m 0 min 0 min 25 W/m 19,3 km/h (3 Bft) 95,74 %
13.01.2023 16:24 8,4 C 7,8 C 4,4 C 87 % 1010,4 hPa 0,0 l/m 0 min 0 min 22 W/m 22,5 km/h (4 Bft) 95,74 %
13.01.2023 16:26 8,4 C 7,8 C 4,4 C 87 % 1010,5 hPa 0,0 l/m 0 min 0 min 20 W/m 22,5 km/h (4 Bft) 93,62 %
13.01.2023 16:28 8,4 C 7,8 C 4,4 C 87 % 1010,5 hPa 0,0 l/m 0 min 0 min 19 W/m 25,7 km/h (4 Bft) 95,65 %
13.01.2023 16:30 8,4 C 7,8 C 4,4 C 87 % 1010,4 hPa 0,0 l/m 0 min 0 min 19 W/m 22,5 km/h (4 Bft) 95,74 %
13.01.2023 16:32 8,4 C 7,8 C 4,4 C 87 % 1010,5 hPa 0,0 l/m 0 min 0 min 16 W/m 22,5 km/h (4 Bft) 93,62 %
13.01.2023 16:34 8,4 C 7,8 C 4,4 C 87 % 1010,5 hPa 0,0 l/m 0 min 0 min 12 W/m 19,3 km/h (3 Bft) 95,74 %
13.01.2023 16:36 8,4 C 7,8 C 4,4 C 87 % 1010,6 hPa 0,0 l/m 0 min 0 min 8 W/m 16,1 km/h (3 Bft) 97,87 %
13.01.2023 16:38 8,4 C 7,8 C 4,4 C 87 % 1010,7 hPa 0,0 l/m 0 min 0 min 5 W/m 16,1 km/h (3 Bft) 93,62 %
13.01.2023 16:40 8,4 C 7,8 C 4,4 C 87 % 1010,7 hPa 0,0 l/m 0 min 0 min 5 W/m 25,7 km/h (4 Bft) 97,83 %
13.01.2023 16:42 8,4 C 7,8 C 4,4 C 86 % 1010,8 hPa 0,0 l/m 0 min 0 min 2 W/m 22,5 km/h (4 Bft) 91,49 %
13.01.2023 16:44 8,4 C 7,8 C 4,4 C 87 % 1010,8 hPa 0,0 l/m 0 min 0 min 0 W/m 22,5 km/h (4 Bft) 95,74 %
13.01.2023 16:46 8,4 C 7,8 C 4,4 C 86 % 1010,8 hPa 0,0 l/m 0 min 0 min 0 W/m 16,1 km/h (3 Bft) 95,74 %
13.01.2023 16:48 8,4 C 7,8 C 4,4 C 86 % 1010,9 hPa 0,0 l/m 0 min 0 min 0 W/m 19,3 km/h (3 Bft) 89,36 %
13.01.2023 16:50 8,4 C 7,8 C 4,4 C 86 % 1010,9 hPa 0,0 l/m 0 min 0 min 0 W/m 16,1 km/h (3 Bft) 95,74 %
13.01.2023 16:52 8,4 C 7,8 C 4,4 C 86 % 1010,9 hPa 0,0 l/m 0 min 0 min 0 W/m 16,1 km/h (3 Bft) 95,74 %
13.01.2023 16:54 8,4 C 7,8 C 4,4 C 86 % 1011,0 hPa 0,0 l/m 0 min 0 min 0 W/m 19,3 km/h (3 Bft) 95,65 %
13.01.2023 16:56 8,4 C 7,8 C 4,4 C 86 % 1011,0 hPa 0,0 l/m 0 min 0 min 0 W/m 19,3 km/h (3 Bft) 95,74 %
13.01.2023 16:58 8,4 C 7,8 C 4,4 C 86 % 1011,1 hPa 0,0 l/m 0 min 0 min 0 W/m 12,9 km/h (3 Bft) 97,87 %
13.01.2023 17:00 8,5 C 7,8 C 4,4 C 86 % 1011,1 hPa 0,0 l/m 0 min 0 min 0 W/m 19,3 km/h (3 Bft) 95,74 %
13.01.2023 17:02 8,5 C 7,8 C 4,4 C 85 % 1011,1 hPa 0,0 l/m 0 min 0 min 0 W/m 12,9 km/h (3 Bft) 95,74 %
13.01.2023 17:04 8,5 C 7,8 C 4,4 C 85 % 1011,1 hPa 0,0 l/m 0 min 0 min 0 W/m 19,3 km/h (3 Bft) 97,87 %
13.01.2023 17:06 8,5 C 7,8 C 4,4 C 85 % 1011,1 hPa 0,0 l/m 0 min 0 min 0 W/m 19,3 km/h (3 Bft) 98,28 %
13.01.2023 17:08 8,5 C 7,8 C 4,4 C 85 % 1011,2 hPa 0,0 l/m 0 min 0 min 0 W/m 9,7 km/h (2 Bft) 97,14 %
13.01.2023 17:10 8,5 C 7,8 C 4,4 C 86 % 1011,2 hPa 0,0 l/m 0 min 0 min 0 W/m 12,9 km/h (3 Bft) 95,74 %
13.01.2023 17:12 8,5 C 7,8 C 4,4 C 86 % 1011,3 hPa 0,0 l/m 0 min 0 min 0 W/m 12,9 km/h (3 Bft) 95,74 %
13.01.2023 17:14 8,5 C 7,8 C 4,4 C 86 % 1011,2 hPa 0,0 l/m 0 min 0 min 0 W/m 16,1 km/h (3 Bft) 100,00 %
13.01.2023 17:16 8,4 C 7,8 C 4,4 C 86 % 1011,3 hPa 0,0 l/m 0 min 0 min 0 W/m 9,7 km/h (2 Bft) 97,87 %
13.01.2023 17:18 8,4 C 7,8 C 4,4 C 87 % 1011,3 hPa 0,0 l/m 0 min 0 min 0 W/m 22,5 km/h (4 Bft) 97,87 %
13.01.2023 17:20 8,4 C 7,8 C 4,4 C 87 % 1011,3 hPa 0,0 l/m 0 min 0 min 0 W/m 9,7 km/h (2 Bft) 100,00 %
13.01.2023 17:22 8,4 C 7,8 C 4,4 C 87 % 1011,4 hPa 0,0 l/m 0 min 0 min 0 W/m 16,1 km/h (3 Bft) 100,00 %
13.01.2023 17:24 8,4 C 7,8 C 4,4 C 88 % 1011,5 hPa 0,0 l/m 0 min 0 min 0 W/m 12,9 km/h (3 Bft) 97,87 %
13.01.2023 17:26 8,4 C 7,8 C 4,4 C 88 % 1011,5 hPa 0,0 l/m 0 min 2 min 0 W/m 12,9 km/h (3 Bft) 100,00 %
13.01.2023 17:28 8,3 C 7,8 C 4,4 C 88 % 1011,6 hPa 0,0 l/m 0 min 2 min 0 W/m 22,5 km/h (4 Bft) 100,00 %
13.01.2023 17:30 8,3 C 7,8 C 4,4 C 88 % 1011,5 hPa 0,0 l/m 0 min 2 min 0 W/m 19,3 km/h (3 Bft) 93,62 %
13.01.2023 17:32 8,3 C 7,2 C 3,9 C 88 % 1011,6 hPa 0,0 l/m 0 min 2 min 0 W/m 12,9 km/h (3 Bft) 97,87 %
13.01.2023 17:34 8,3 C 7,2 C 3,9 C 88 % 1011,6 hPa 0,0 l/m 0 min 2 min 0 W/m 19,3 km/h (3 Bft) 100,00 %
13.01.2023 17:36 8,2 C 7,2 C 3,9 C 88 % 1011,6 hPa 0,0 l/m 0 min 2 min 0 W/m 12,9 km/h (3 Bft) 95,65 %
13.01.2023 17:38 8,2 C 7,8 C 4,4 C 88 % 1011,7 hPa 0,0 l/m 0 min 2 min 0 W/m 25,7 km/h (4 Bft) 100,00 %
13.01.2023 17:40 8,2 C 7,8 C 4,4 C 88 % 1011,7 hPa 0,0 l/m 0 min 2 min 0 W/m 29,0 km/h (5 Bft) 100,00 %
13.01.2023 17:42 8,2 C 7,8 C 4,4 C 88 % 1011,7 hPa 0,0 l/m 0 min 2 min 0 W/m 19,3 km/h (3 Bft) 95,74 %
13.01.2023 17:44 8,3 C 7,8 C 4,4 C 88 % 1011,8 hPa 0,0 l/m 0 min 2 min 0 W/m 22,5 km/h (4 Bft) 100,00 %
13.01.2023 17:46 8,3 C 7,8 C 4,4 C 88 % 1011,8 hPa 0,0 l/m 0 min 2 min 0 W/m 19,3 km/h (3 Bft) 97,87 %
13.01.2023 17:48 8,3 C 7,8 C 4,4 C 88 % 1011,9 hPa 0,0 l/m 0 min 0 min 0 W/m 19,3 km/h (3 Bft) 97,83 %
13.01.2023 17:50 8,3 C 7,8 C 4,4 C 88 % 1011,9 hPa 0,0 l/m 0 min 0 min 0 W/m 22,5 km/h (4 Bft) 100,00 %
13.01.2023 17:52 8,3 C 7,8 C 4,4 C 88 % 1011,9 hPa 0,0 l/m 0 min 0 min 0 W/m 12,9 km/h (3 Bft) 97,87 %
13.01.2023 17:54 8,3 C 7,8 C 4,4 C 87 % 1012,0 hPa 0,0 l/m 0 min 0 min 0 W/m 19,3 km/h (3 Bft) 97,87 %
13.01.2023 17:56 8,3 C 7,8 C 4,4 C 87 % 1012,0 hPa 0,0 l/m 0 min 0 min 0 W/m 12,9 km/h (3 Bft) 100,00 %
13.01.2023 17:58 8,3 C 7,8 C 4,4 C 87 % 1012,1 hPa 0,0 l/m 0 min 0 min 0 W/m 16,1 km/h (3 Bft) 100,00 %
13.01.2023 18:00 8,3 C 7,8 C 4,4 C 87 % 1012,2 hPa 0,0 l/m 0 min 0 min 0 W/m 16,1 km/h (3 Bft) 97,87 %
13.01.2023 18:02 8,3 C 7,8 C 4,4 C 87 % 1012,2 hPa 0,0 l/m 0 min 0 min 0 W/m 19,3 km/h (3 Bft) 100,00 %
13.01.2023 18:04 8,3 C 7,8 C 4,4 C 87 % 1012,2 hPa 0,0 l/m 0 min 0 min 0 W/m 22,5 km/h (4 Bft) 100,00 %
13.01.2023 18:07 8,3 C 7,8 C 4,4 C 87 % 1012,2 hPa 0,0 l/m 0 min 0 min 0 W/m 19,3 km/h (3 Bft) 94,37 %
13.01.2023 18:08 8,3 C 7,8 C 4,4 C 87 % 1012,2 hPa 0,0 l/m 0 min 0 min 0 W/m 6,4 km/h (2 Bft) 100,00 %
13.01.2023 18:10 8,3 C 7,8 C 4,4 C 87 % 1012,2 hPa 0,0 l/m 0 min 0 min 0 W/m 16,1 km/h (3 Bft) 97,87 %
13.01.2023 18:12 8,3 C 7,8 C 4,4 C 87 % 1012,3 hPa 0,0 l/m 0 min 0 min 0 W/m 19,3 km/h (3 Bft) 97,87 %
13.01.2023 18:14 8,3 C 7,8 C 4,4 C 87 % 1012,2 hPa 0,0 l/m 0 min 0 min 0 W/m 19,3 km/h (3 Bft) 100,00 %
13.01.2023 18:16 8,3 C 7,8 C 4,4 C 87 % 1012,3 hPa 0,0 l/m 0 min 0 min 0 W/m 16,1 km/h (3 Bft) 95,65 %
13.01.2023 18:18 8,3 C 7,8 C 4,4 C 87 % 1012,3 hPa 0,0 l/m 0 min 0 min 0 W/m 29,0 km/h (5 Bft) 100,00 %
13.01.2023 18:20 8,3 C 7,8 C 4,4 C 87 % 1012,3 hPa 0,0 l/m 0 min 0 min 0 W/m 16,1 km/h (3 Bft) 95,74 %
13.01.2023 18:22 8,3 C 7,8 C 4,4 C 87 % 1012,4 hPa 0,0 l/m 0 min 0 min 0 W/m 19,3 km/h (3 Bft) 91,49 %
13.01.2023 18:24 8,3 C 7,8 C 4,4 C 87 % 1012,5 hPa 0,0 l/m 0 min 0 min 0 W/m 22,5 km/h (4 Bft) 93,62 %
13.01.2023 18:26 8,3 C 7,8 C 4,4 C 87 % 1012,5 hPa 0,0 l/m 0 min 0 min 0 W/m 22,5 km/h (4 Bft) 95,74 %
13.01.2023 18:28 8,3 C 7,8 C 4,4 C 87 % 1012,5 hPa 0,0 l/m 0 min 0 min 0 W/m 16,1 km/h (3 Bft) 97,87 %
13.01.2023 18:30 8,3 C 7,8 C 4,4 C 87 % 1012,6 hPa 0,0 l/m 0 min 0 min 0 W/m 16,1 km/h (3 Bft) 100,00 %
13.01.2023 18:32 8,3 C 7,8 C 4,4 C 87 % 1012,5 hPa 0,0 l/m 0 min 0 min 0 W/m 25,7 km/h (4 Bft) 100,00 %
13.01.2023 18:34 8,3 C 7,8 C 4,4 C 87 % 1012,6 hPa 0,0 l/m 0 min 0 min 0 W/m 19,3 km/h (3 Bft) 97,87 %
13.01.2023 18:36 8,3 C 7,8 C 4,4 C 87 % 1012,7 hPa 0,0 l/m 0 min 0 min 0 W/m 16,1 km/h (3 Bft) 97,87 %
13.01.2023 18:38 8,3 C 7,8 C 4,4 C 87 % 1012,6 hPa 0,0 l/m 0 min 0 min 0 W/m 16,1 km/h (3 Bft) 95,74 %
13.01.2023 18:40 8,3 C 7,8 C 4,4 C 87 % 1012,6 hPa 0,0 l/m 0 min 0 min 0 W/m 16,1 km/h (3 Bft) 95,74 %
13.01.2023 18:42 8,3 C 7,8 C 4,4 C 87 % 1012,6 hPa 0,0 l/m 0 min 0 min 0 W/m 25,7 km/h (4 Bft) 95,65 %
13.01.2023 18:44 8,3 C 7,8 C 4,4 C 87 % 1012,6 hPa 0,0 l/m 0 min 0 min 0 W/m 22,5 km/h (4 Bft) 93,62 %
13.01.2023 18:46 8,3 C 7,8 C 4,4 C 86 % 1012,6 hPa 0,0 l/m 0 min 0 min 0 W/m 16,1 km/h (3 Bft) 93,62 %
13.01.2023 18:48 8,3 C 7,8 C 4,4 C 86 % 1012,6 hPa 0,0 l/m 0 min 0 min 0 W/m 16,1 km/h (3 Bft) 91,49 %
13.01.2023 18:50 8,3 C 7,8 C 4,4 C 86 % 1012,7 hPa 0,0 l/m 0 min 0 min 0 W/m 19,3 km/h (3 Bft) 91,49 %
13.01.2023 18:52 8,3 C 7,8 C 4,4 C 86 % 1012,6 hPa 0,0 l/m 0 min 0 min 0 W/m 19,3 km/h (3 Bft) 93,62 %
13.01.2023 18:54 8,3 C 7,8 C 4,4 C 86 % 1012,7 hPa 0,0 l/m 0 min 0 min 0 W/m 16,1 km/h (3 Bft) 91,49 %
13.01.2023 18:56 8,3 C 7,8 C 4,4 C 86 % 1012,6 hPa 0,0 l/m 0 min 2 min 0 W/m 16,1 km/h (3 Bft) 93,48 %
13.01.2023 18:58 8,3 C 7,8 C 4,4 C 86 % 1012,7 hPa 0,0 l/m 0 min 0 min 0 W/m 32,2 km/h (5 Bft) 93,62 %
13.01.2023 19:00 8,3 C 7,8 C 4,4 C 86 % 1012,7 hPa 0,0 l/m 0 min 0 min 0 W/m 12,9 km/h (3 Bft) 91,49 %
13.01.2023 19:02 8,3 C 7,8 C 4,4 C 86 % 1012,7 hPa 0,0 l/m 0 min 0 min 0 W/m 16,1 km/h (3 Bft) 91,49 %
13.01.2023 19:04 8,3 C 7,8 C 4,4 C 85 % 1012,7 hPa 0,0 l/m 0 min 0 min 0 W/m 22,5 km/h (4 Bft) 91,49 %
13.01.2023 19:06 8,3 C 7,8 C 4,4 C 85 % 1012,7 hPa 0,0 l/m 0 min 0 min 0 W/m 19,3 km/h (3 Bft) 91,49 %
13.01.2023 19:08 8,4 C 7,8 C 4,4 C 85 % 1012,8 hPa 0,0 l/m 0 min 0 min 0 W/m 12,9 km/h (3 Bft) 95,65 %
13.01.2023 19:10 8,4 C 7,8 C 4,4 C 85 % 1012,8 hPa 0,0 l/m 0 min 0 min 0 W/m 25,7 km/h (4 Bft) 95,74 %
13.01.2023 19:12 8,4 C 7,8 C 4,4 C 84 % 1012,9 hPa 0,0 l/m 0 min 0 min 0 W/m 19,3 km/h (3 Bft) 95,74 %
13.01.2023 19:14 8,4 C 7,8 C 4,4 C 84 % 1012,8 hPa 0,0 l/m 0 min 0 min 0 W/m 12,9 km/h (3 Bft) 95,74 %
13.01.2023 19:16 8,5 C 7,8 C 4,4 C 84 % 1012,9 hPa 0,0 l/m 0 min 0 min 0 W/m 19,3 km/h (3 Bft) 95,74 %
13.01.2023 19:18 8,5 C 7,8 C 4,4 C 84 % 1012,9 hPa 0,0 l/m 0 min 0 min 0 W/m 16,1 km/h (3 Bft) 95,74 %
13.01.2023 19:20 8,5 C 7,8 C 4,4 C 84 % 1012,8 hPa 0,0 l/m 0 min 0 min 0 W/m 22,5 km/h (4 Bft) 97,87 %
13.01.2023 19:22 8,5 C 7,8 C 4,4 C 84 % 1012,8 hPa 0,0 l/m 0 min 0 min 0 W/m 22,5 km/h (4 Bft) 95,65 %
13.01.2023 19:24 8,5 C 7,8 C 4,4 C 83 % 1012,9 hPa 0,0 l/m 0 min 0 min 0 W/m 29,0 km/h (5 Bft) 93,62 %
13.01.2023 19:26 8,6 C 7,8 C 4,4 C 83 % 1012,9 hPa 0,0 l/m 0 min 0 min 0 W/m 22,5 km/h (4 Bft) 95,12 %
13.01.2023 19:28 8,6 C 7,8 C 4,4 C 83 % 1012,9 hPa 0,0 l/m 0 min 0 min 0 W/m 19,3 km/h (3 Bft) 93,62 %
13.01.2023 19:30 8,6 C 7,8 C 4,4 C 83 % 1012,9 hPa 0,0 l/m 0 min 2 min 0 W/m 19,3 km/h (3 Bft) 97,87 %
13.01.2023 19:32 8,6 C 7,8 C 4,4 C 83 % 1013,0 hPa 0,0 l/m 0 min 2 min 0 W/m 16,1 km/h (3 Bft) 97,87 %
13.01.2023 19:34 8,6 C 7,8 C 4,4 C 83 % 1013,0 hPa 0,0 l/m 0 min 0 min 0 W/m 19,3 km/h (3 Bft) 100,00 %
13.01.2023 19:36 8,6 C 7,8 C 4,4 C 83 % 1013,0 hPa 0,0 l/m 0 min 0 min 0 W/m 19,3 km/h (3 Bft) 100,00 %
13.01.2023 19:38 8,5 C 7,8 C 4,4 C 83 % 1013,1 hPa 0,0 l/m 0 min 0 min 0 W/m 19,3 km/h (3 Bft) 95,65 %
13.01.2023 19:40 8,5 C 7,8 C 4,4 C 83 % 1013,1 hPa 0,0 l/m 0 min 0 min 0 W/m 19,3 km/h (3 Bft) 100,00 %
13.01.2023 19:42 8,5 C 7,8 C 4,4 C 83 % 1013,1 hPa 0,0 l/m 0 min 0 min 0 W/m 12,9 km/h (3 Bft) 100,00 %
13.01.2023 19:44 8,5 C 7,8 C 4,4 C 83 % 1013,1 hPa 0,0 l/m 0 min 0 min 0 W/m 25,7 km/h (4 Bft) 100,00 %
13.01.2023 19:46 8,5 C 7,8 C 4,4 C 83 % 1013,1 hPa 0,0 l/m 0 min 0 min 0 W/m 19,3 km/h (3 Bft) 97,87 %
13.01.2023 19:48 8,5 C 7,8 C 4,4 C 83 % 1013,1 hPa 0,0 l/m 0 min 0 min 0 W/m 29,0 km/h (5 Bft) 100,00 %
13.01.2023 19:50 8,5 C 7,8 C 4,4 C 83 % 1013,2 hPa 0,0 l/m 0 min 0 min 0 W/m 22,5 km/h (4 Bft) 100,00 %
13.01.2023 19:52 8,5 C 7,8 C 4,4 C 83 % 1013,2 hPa 0,0 l/m 0 min 0 min 0 W/m 16,1 km/h (3 Bft) 97,78 %
13.01.2023 19:54 8,6 C 7,8 C 4,4 C 83 % 1013,3 hPa 0,0 l/m 0 min 0 min 0 W/m 25,7 km/h (4 Bft) 97,87 %
13.01.2023 19:56 8,6 C 7,8 C 4,4 C 83 % 1013,3 hPa 0,0 l/m 0 min 0 min 0 W/m 19,3 km/h (3 Bft) 100,00 %
13.01.2023 19:58 8,6 C 7,8 C 4,4 C 82 % 1013,4 hPa 0,0 l/m 0 min 0 min 0 W/m 22,5 km/h (4 Bft) 100,00 %
13.01.2023 20:00 8,6 C 7,8 C 4,4 C 82 % 1013,3 hPa 0,0 l/m 0 min 0 min 0 W/m 19,3 km/h (3 Bft) 100,00 %
13.01.2023 20:02 8,6 C 7,8 C 4,4 C 82 % 1013,4 hPa 0,0 l/m 0 min 0 min 0 W/m 16,1 km/h (3 Bft) 100,00 %
13.01.2023 20:04 8,6 C 7,8 C 4,4 C 82 % 1013,4 hPa 0,0 l/m 0 min 0 min 0 W/m 19,3 km/h (3 Bft) 100,00 %
13.01.2023 20:06 8,6 C 7,8 C 4,4 C 82 % 1013,4 hPa 0,0 l/m 0 min 0 min 0 W/m 16,1 km/h (3 Bft) 100,00 %
13.01.2023 20:08 8,5 C 7,8 C 4,4 C 82 % 1013,4 hPa 0,0 l/m 0 min 0 min 0 W/m 19,3 km/h (3 Bft) 100,00 %
13.01.2023 20:10 8,5 C 7,8 C 4,4 C 82 % 1013,5 hPa 0,0 l/m 0 min 0 min 0 W/m 12,9 km/h (3 Bft) 100,00 %
13.01.2023 20:12 8,5 C 7,8 C 4,4 C 82 % 1013,5 hPa 0,0 l/m 0 min 0 min 0 W/m 16,1 km/h (3 Bft) 97,87 %
13.01.2023 20:14 8,5 C 7,8 C 4,4 C 82 % 1013,6 hPa 0,0 l/m 0 min 0 min 0 W/m 19,3 km/h (3 Bft) 97,87 %
13.01.2023 20:16 8,4 C 7,8 C 4,4 C 82 % 1013,5 hPa 0,0 l/m 0 min 0 min 0 W/m 16,1 km/h (3 Bft) 100,00 %
13.01.2023 20:18 8,4 C 7,8 C 4,4 C 82 % 1013,5 hPa 0,0 l/m 0 min 0 min 0 W/m 22,5 km/h (4 Bft) 97,87 %
13.01.2023 20:20 8,4 C 7,8 C 4,4 C 82 % 1013,5 hPa 0,0 l/m 0 min 0 min 0 W/m 16,1 km/h (3 Bft) 100,00 %
13.01.2023 20:22 8,4 C 7,8 C 4,4 C 82 % 1013,5 hPa 0,0 l/m 0 min 0 min 0 W/m 32,2 km/h (5 Bft) 97,87 %
13.01.2023 20:24 8,4 C 7,2 C 4,4 C 82 % 1013,6 hPa 0,0 l/m 0 min 0 min 0 W/m 16,1 km/h (3 Bft) 100,00 %
13.01.2023 20:26 8,3 C 7,2 C 4,4 C 82 % 1013,6 hPa 0,0 l/m 0 min 0 min 0 W/m 16,1 km/h (3 Bft) 100,00 %
13.01.2023 20:28 8,3 C 7,2 C 3,9 C 82 % 1013,6 hPa 0,0 l/m 0 min 0 min 0 W/m 19,3 km/h (3 Bft) 97,87 %
13.01.2023 20:30 8,3 C 7,2 C 3,9 C 82 % 1013,5 hPa 0,0 l/m 0 min 0 min 0 W/m 19,3 km/h (3 Bft) 97,87 %
13.01.2023 20:32 8,3 C 7,2 C 3,9 C 82 % 1013,6 hPa 0,0 l/m 0 min 0 min 0 W/m 16,1 km/h (3 Bft) 97,83 %
13.01.2023 20:34 8,2 C 7,2 C 3,9 C 82 % 1013,6 hPa 0,0 l/m 0 min 0 min 0 W/m 19,3 km/h (3 Bft) 97,87 %
13.01.2023 20:36 8,2 C 7,2 C 3,9 C 82 % 1013,6 hPa 0,0 l/m 0 min 0 min 0 W/m 19,3 km/h (3 Bft) 97,87 %
13.01.2023 20:38 8,2 C 7,2 C 3,9 C 82 % 1013,6 hPa 0,0 l/m 0 min 0 min 0 W/m 16,1 km/h (3 Bft) 95,74 %
13.01.2023 20:40 8,2 C 7,2 C 3,9 C 82 % 1013,7 hPa 0,0 l/m 0 min 0 min 0 W/m 25,7 km/h (4 Bft) 97,87 %
13.01.2023 20:42 8,1 C 7,2 C 3,9 C 82 % 1013,8 hPa 0,0 l/m 0 min 0 min 0 W/m 16,1 km/h (3 Bft) 95,74 %
13.01.2023 20:44 8,1 C 7,2 C 3,9 C 82 % 1013,7 hPa 0,0 l/m 0 min 0 min 0 W/m 19,3 km/h (3 Bft) 97,87 %
13.01.2023 20:46 8,1 C 7,2 C 3,9 C 82 % 1013,8 hPa 0,0 l/m 0 min 0 min 0 W/m 22,5 km/h (4 Bft) 97,83 %
13.01.2023 20:48 8,1 C 7,2 C 3,9 C 82 % 1013,8 hPa 0,0 l/m 0 min 0 min 0 W/m 19,3 km/h (3 Bft) 97,87 %
13.01.2023 20:50 8,1 C 7,2 C 3,9 C 82 % 1013,8 hPa 0,0 l/m 0 min 0 min 0 W/m 19,3 km/h (3 Bft) 97,87 %
13.01.2023 20:52 8,1 C 7,2 C 3,9 C 83 % 1013,8 hPa 0,0 l/m 0 min 0 min 0 W/m 25,7 km/h (4 Bft) 97,87 %
13.01.2023 20:54 8,1 C 7,2 C 3,9 C 83 % 1013,9 hPa 0,0 l/m 0 min 0 min 0 W/m 25,7 km/h (4 Bft) 97,87 %
13.01.2023 20:56 8,1 C 7,2 C 3,9 C 83 % 1014,0 hPa 0,0 l/m 0 min 0 min 0 W/m 19,3 km/h (3 Bft) 95,74 %
13.01.2023 20:58 8,1 C 7,2 C 3,9 C 83 % 1014,0 hPa 0,0 l/m 0 min 0 min 0 W/m 22,5 km/h (4 Bft) 97,87 %
13.01.2023 21:00 8,1 C 7,2 C 3,9 C 83 % 1014,1 hPa 0,0 l/m 0 min 0 min 0 W/m 12,9 km/h (3 Bft) 97,83 %
13.01.2023 21:02 8,0 C 7,2 C 3,9 C 83 % 1014,1 hPa 0,0 l/m 0 min 0 min 0 W/m 16,1 km/h (3 Bft) 93,62 %
13.01.2023 21:04 8,0 C 7,2 C 3,9 C 83 % 1014,2 hPa 0,0 l/m 0 min 0 min 0 W/m 22,5 km/h (4 Bft) 97,87 %
13.01.2023 21:06 8,0 C 7,2 C 3,9 C 83 % 1014,3 hPa 0,0 l/m 0 min 0 min 0 W/m 19,3 km/h (3 Bft) 100,00 %
13.01.2023 21:08 8,0 C 7,2 C 3,9 C 83 % 1014,2 hPa 0,0 l/m 0 min 0 min 0 W/m 19,3 km/h (3 Bft) 100,00 %
13.01.2023 21:10 8,0 C 7,2 C 3,9 C 83 % 1014,3 hPa 0,0 l/m 0 min 0 min 0 W/m 16,1 km/h (3 Bft) 100,00 %
13.01.2023 21:12 8,0 C 7,2 C 3,9 C 83 % 1014,3 hPa 0,0 l/m 0 min 0 min 0 W/m 19,3 km/h (3 Bft) 97,87 %
13.01.2023 21:14 7,9 C 7,2 C 3,9 C 84 % 1014,3 hPa 0,0 l/m 0 min 0 min 0 W/m 16,1 km/h (3 Bft) 100,00 %
13.01.2023 21:16 7,9 C 7,2 C 3,9 C 84 % 1014,3 hPa 0,0 l/m 0 min 0 min 0 W/m 16,1 km/h (3 Bft) 100,00 %
13.01.2023 21:18 7,9 C 7,2 C 3,9 C 84 % 1014,3 hPa 0,0 l/m 0 min 0 min 0 W/m 19,3 km/h (3 Bft) 97,87 %
13.01.2023 21:20 7,9 C 7,2 C 3,9 C 84 % 1014,3 hPa 0,0 l/m 0 min 0 min 0 W/m 16,1 km/h (3 Bft) 97,87 %
13.01.2023 21:22 8,0 C 7,2 C 3,9 C 84 % 1014,4 hPa 0,0 l/m 0 min 0 min 0 W/m 25,7 km/h (4 Bft) 97,87 %
13.01.2023 21:24 8,0 C 7,2 C 3,9 C 84 % 1014,4 hPa 0,0 l/m 0 min 0 min 0 W/m 22,5 km/h (4 Bft) 97,87 %
13.01.2023 21:26 8,0 C 7,2 C 3,9 C 84 % 1014,4 hPa 0,0 l/m 0 min 0 min 0 W/m 12,9 km/h (3 Bft) 68,09 %
13.01.2023 21:28 8,1 C 7,2 C 3,9 C 84 % 1014,4 hPa 0,0 l/m 0 min 0 min 0 W/m 16,1 km/h (3 Bft) 83,72 %
13.01.2023 21:30 8,0 C 7,2 C 3,9 C 84 % 1014,5 hPa 0,0 l/m 0 min 0 min 0 W/m 19,3 km/h (3 Bft) 95,74 %
13.01.2023 21:32 8,1 C 7,2 C 3,9 C 85 % 1014,5 hPa 0,0 l/m 0 min 0 min 0 W/m 12,9 km/h (3 Bft) 97,87 %
13.01.2023 21:34 8,1 C 7,2 C 3,9 C 85 % 1014,5 hPa 0,0 l/m 0 min 0 min 0 W/m 16,1 km/h (3 Bft) 95,74 %
13.01.2023 21:36 8,0 C 7,2 C 3,9 C 85 % 1014,5 hPa 0,0 l/m 0 min 0 min 0 W/m 12,9 km/h (3 Bft) 95,74 %
13.01.2023 21:38 8,1 C 7,2 C 3,9 C 85 % 1014,5 hPa 0,0 l/m 0 min 2 min 0 W/m 25,7 km/h (4 Bft) 95,74 %
13.01.2023 21:40 8,0 C 7,2 C 3,9 C 85 % 1014,4 hPa 0,0 l/m 0 min 0 min 0 W/m 25,7 km/h (4 Bft) 95,65 %
13.01.2023 21:42 8,0 C 7,2 C 3,9 C 85 % 1014,5 hPa 0,0 l/m 0 min 0 min 0 W/m 9,7 km/h (2 Bft) 93,62 %
13.01.2023 21:44 7,9 C 7,2 C 3,9 C 86 % 1014,6 hPa 0,0 l/m 0 min 0 min 0 W/m 16,1 km/h (3 Bft) 93,62 %
13.01.2023 21:46 7,9 C 7,2 C 3,9 C 86 % 1014,6 hPa 0,0 l/m 0 min 0 min 0 W/m 25,7 km/h (4 Bft) 95,74 %
13.01.2023 21:48 7,9 C 7,2 C 3,9 C 86 % 1014,6 hPa 0,0 l/m 0 min 0 min 0 W/m 19,3 km/h (3 Bft) 93,62 %
13.01.2023 21:50 7,9 C 7,2 C 3,9 C 86 % 1014,6 hPa 0,0 l/m 0 min 0 min 0 W/m 16,1 km/h (3 Bft) 93,62 %
13.01.2023 21:52 7,8 C 7,2 C 3,9 C 86 % 1014,7 hPa 0,0 l/m 0 min 0 min 0 W/m 16,1 km/h (3 Bft) 93,62 %
13.01.2023 21:54 7,8 C 7,2 C 3,9 C 86 % 1014,7 hPa 0,0 l/m 0 min 0 min 0 W/m 12,9 km/h (3 Bft) 50,00 %
13.01.2023 21:56 7,8 C 7,2 C 3,9 C 87 % 1014,7 hPa 0,0 l/m 0 min 0 min 0 W/m 16,1 km/h (3 Bft) 57,45 %
13.01.2023 21:58 7,8 C 7,2 C 3,9 C 87 % 1014,8 hPa 0,0 l/m 0 min 0 min 0 W/m 12,9 km/h (3 Bft) 70,21 %
13.01.2023 22:00 7,8 C 7,2 C 3,9 C 87 % 1014,7 hPa 0,0 l/m 0 min 0 min 0 W/m 16,1 km/h (3 Bft) 76,60 %
13.01.2023 22:02 7,8 C 7,2 C 3,9 C 87 % 1014,8 hPa 0,0 l/m 0 min 0 min 0 W/m 16,1 km/h (3 Bft) 82,98 %
13.01.2023 22:04 7,8 C 7,2 C 3,9 C 87 % 1014,8 hPa 0,0 l/m 0 min 0 min 0 W/m 12,9 km/h (3 Bft) 44,68 %
13.01.2023 22:06 7,8 C 7,2 C 3,9 C 87 % 1014,8 hPa 0,0 l/m 0 min 0 min 0 W/m 19,3 km/h (3 Bft) 54,72 %
13.01.2023 22:08 7,8 C 7,2 C 3,9 C 87 % 1014,8 hPa 0,0 l/m 0 min 0 min 0 W/m 22,5 km/h (4 Bft) 55,32 %
13.01.2023 22:10 7,8 C 7,2 C 3,9 C 87 % 1014,8 hPa 0,0 l/m 0 min 0 min 0 W/m 12,9 km/h (3 Bft) 59,57 %
13.01.2023 22:12 7,8 C 6,7 C 3,9 C 87 % 1014,9 hPa 0,0 l/m 0 min 0 min 0 W/m 16,1 km/h (3 Bft) 53,19 %
13.01.2023 22:14 7,8 C 6,7 C 3,9 C 87 % 1014,9 hPa 0,0 l/m 0 min 0 min 0 W/m 19,3 km/h (3 Bft) 58,00 %
13.01.2023 22:16 7,7 C 6,7 C 3,9 C 87 % 1014,9 hPa 0,0 l/m 0 min 0 min 0 W/m 12,9 km/h (3 Bft) 70,21 %
13.01.2023 22:18 7,7 C 6,7 C 3,3 C 87 % 1014,9 hPa 0,0 l/m 0 min 0 min 0 W/m 16,1 km/h (3 Bft) 78,26 %
13.01.2023 22:20 7,7 C 6,7 C 3,3 C 87 % 1015,0 hPa 0,0 l/m 0 min 0 min 0 W/m 19,3 km/h (3 Bft) 78,72 %
13.01.2023 22:22 7,7 C 6,7 C 3,3 C 87 % 1015,0 hPa 0,0 l/m 0 min 0 min 0 W/m 16,1 km/h (3 Bft) 48,94 %
13.01.2023 22:24 7,6 C 6,7 C 3,3 C 87 % 1015,0 hPa 0,0 l/m 0 min 0 min 0 W/m 19,3 km/h (3 Bft) 57,45 %
13.01.2023 22:26 7,6 C 6,7 C 3,3 C 87 % 1015,1 hPa 0,0 l/m 0 min 0 min 0 W/m 22,5 km/h (4 Bft) 51,06 %
13.01.2023 22:28 7,6 C 6,7 C 3,3 C 87 % 1015,0 hPa 0,0 l/m 0 min 0 min 0 W/m 12,9 km/h (3 Bft) 44,68 %
13.01.2023 22:30 7,6 C 6,7 C 3,3 C 87 % 1015,0 hPa 0,0 l/m 0 min 0 min 0 W/m 12,9 km/h (3 Bft) 55,32 %
13.01.2023 22:32 7,6 C 6,7 C 3,3 C 87 % 1015,0 hPa 0,0 l/m 0 min 0 min 0 W/m 12,9 km/h (3 Bft) 82,61 %
13.01.2023 22:34 7,6 C 6,7 C 3,3 C 87 % 1015,0 hPa 0,0 l/m 0 min 0 min 0 W/m 16,1 km/h (3 Bft) 78,72 %
13.01.2023 22:36 7,6 C 6,7 C 3,3 C 87 % 1015,0 hPa 0,0 l/m 0 min 0 min 0 W/m 16,1 km/h (3 Bft) 80,85 %
13.01.2023 22:38 7,6 C 6,7 C 3,3 C 87 % 1015,0 hPa 0,0 l/m 0 min 0 min 0 W/m 9,7 km/h (2 Bft) 72,34 %
13.01.2023 22:40 7,6 C 6,7 C 3,3 C 87 % 1015,1 hPa 0,0 l/m 0 min 0 min 0 W/m 19,3 km/h (3 Bft) 91,49 %
13.01.2023 22:42 7,6 C 6,7 C 3,3 C 87 % 1015,1 hPa 0,0 l/m 0 min 0 min 0 W/m 16,1 km/h (3 Bft) 78,72 %
13.01.2023 22:44 7,5 C 6,7 C 3,3 C 87 % 1015,1 hPa 0,0 l/m 0 min 0 min 0 W/m 16,1 km/h (3 Bft) 60,87 %
13.01.2023 22:46 7,5 C 6,7 C 3,3 C 87 % 1015,1 hPa 0,0 l/m 0 min 0 min 0 W/m 12,9 km/h (3 Bft) 87,23 %
13.01.2023 22:48 7,5 C 6,7 C 3,3 C 88 % 1015,1 hPa 0,0 l/m 0 min 0 min 0 W/m 12,9 km/h (3 Bft) 95,74 %
13.01.2023 22:50 7,5 C 6,7 C 3,3 C 88 % 1015,1 hPa 0,0 l/m 0 min 0 min 0 W/m 12,9 km/h (3 Bft) 42,11 %
13.01.2023 22:52 7,4 C 6,7 C 3,3 C 88 % 1015,2 hPa 0,0 l/m 0 min 0 min 0 W/m 19,3 km/h (3 Bft) 89,36 %
13.01.2023 22:54 7,4 C 6,7 C 3,3 C 88 % 1015,2 hPa 0,0 l/m 0 min 0 min 0 W/m 16,1 km/h (3 Bft) 70,21 %
13.01.2023 22:56 7,4 C 6,7 C 3,3 C 88 % 1015,2 hPa 0,0 l/m 0 min 0 min 0 W/m 12,9 km/h (3 Bft) 78,72 %
13.01.2023 22:58 7,4 C 6,7 C 3,3 C 87 % 1015,2 hPa 0,0 l/m 0 min 0 min 0 W/m 22,5 km/h (4 Bft) 91,30 %
13.01.2023 23:00 7,4 C 6,7 C 3,3 C 88 % 1015,3 hPa 0,0 l/m 0 min 0 min 0 W/m 19,3 km/h (3 Bft) 87,23 %
13.01.2023 23:02 7,4 C 6,7 C 3,3 C 88 % 1015,2 hPa 0,0 l/m 0 min 0 min 0 W/m 12,9 km/h (3 Bft) 76,60 %
13.01.2023 23:04 7,4 C 6,7 C 3,3 C 87 % 1015,3 hPa 0,0 l/m 0 min 0 min 0 W/m 9,7 km/h (2 Bft) 76,60 %
13.01.2023 23:06 7,4 C 6,7 C 3,3 C 88 % 1015,4 hPa 0,0 l/m 0 min 0 min 0 W/m 12,9 km/h (3 Bft) 76,60 %
13.01.2023 23:08 7,3 C 6,7 C 3,3 C 88 % 1015,4 hPa 0,0 l/m 0 min 0 min 0 W/m 16,1 km/h (3 Bft) 85,11 %
13.01.2023 23:10 7,3 C 6,7 C 3,3 C 88 % 1015,4 hPa 0,0 l/m 0 min 0 min 0 W/m 12,9 km/h (3 Bft) 78,26 %
13.01.2023 23:12 7,3 C 6,7 C 3,3 C 88 % 1015,4 hPa 0,0 l/m 0 min 0 min 0 W/m 19,3 km/h (3 Bft) 95,74 %
13.01.2023 23:14 7,3 C 6,7 C 3,3 C 88 % 1015,3 hPa 0,0 l/m 0 min 0 min 0 W/m 16,1 km/h (3 Bft) 97,87 %
13.01.2023 23:16 7,4 C 6,7 C 3,3 C 88 % 1015,4 hPa 0,0 l/m 0 min 0 min 0 W/m 16,1 km/h (3 Bft) 97,87 %
13.01.2023 23:18 7,4 C 6,7 C 3,3 C 88 % 1015,4 hPa 0,0 l/m 0 min 0 min 0 W/m 19,3 km/h (3 Bft) 100,00 %
13.01.2023 23:20 7,4 C 6,7 C 3,3 C 88 % 1015,3 hPa 0,0 l/m 0 min 0 min 0 W/m 12,9 km/h (3 Bft) 100,00 %
13.01.2023 23:22 7,4 C 6,7 C 3,3 C 88 % 1015,3 hPa 0,0 l/m 0 min 0 min 0 W/m 12,9 km/h (3 Bft) 97,87 %
13.01.2023 23:24 7,4 C 6,7 C 3,3 C 88 % 1015,4 hPa 0,0 l/m 0 min 0 min 0 W/m 16,1 km/h (3 Bft) 95,74 %
13.01.2023 23:26 7,5 C 6,7 C 3,3 C 88 % 1015,4 hPa 0,0 l/m 0 min 0 min 0 W/m 19,3 km/h (3 Bft) 95,65 %
13.01.2023 23:28 7,5 C 6,7 C 3,3 C 88 % 1015,4 hPa 0,0 l/m 0 min 0 min 0 W/m 19,3 km/h (3 Bft) 100,00 %
13.01.2023 23:30 7,5 C 6,7 C 3,3 C 88 % 1015,4 hPa 0,0 l/m 0 min 0 min 0 W/m 29,0 km/h (5 Bft) 97,87 %
13.01.2023 23:32 7,5 C 6,7 C 3,3 C 88 % 1015,5 hPa 0,0 l/m 0 min 0 min 0 W/m 12,9 km/h (3 Bft) 97,87 %
13.01.2023 23:34 7,5 C 6,7 C 3,3 C 88 % 1015,5 hPa 0,0 l/m 0 min 0 min 0 W/m 16,1 km/h (3 Bft) 97,87 %
13.01.2023 23:36 7,5 C 6,7 C 3,3 C 88 % 1015,6 hPa 0,0 l/m 0 min 0 min 0 W/m 19,3 km/h (3 Bft) 100,00 %
13.01.2023 23:38 7,5 C 6,7 C 3,3 C 88 % 1015,6 hPa 0,0 l/m 0 min 0 min 0 W/m 19,3 km/h (3 Bft) 95,65 %
13.01.2023 23:40 7,5 C 6,7 C 3,3 C 88 % 1015,7 hPa 0,0 l/m 0 min 0 min 0 W/m 16,1 km/h (3 Bft) 89,36 %
13.01.2023 23:42 7,5 C 6,7 C 3,3 C 88 % 1015,7 hPa 0,0 l/m 0 min 0 min 0 W/m 16,1 km/h (3 Bft) 87,23 %
13.01.2023 23:44 7,6 C 6,7 C 3,3 C 87 % 1015,8 hPa 0,0 l/m 0 min 0 min 0 W/m 16,1 km/h (3 Bft) 97,87 %
13.01.2023 23:46 7,6 C 6,7 C 3,3 C 87 % 1015,9 hPa 0,0 l/m 0 min 0 min 0 W/m 19,3 km/h (3 Bft) 97,87 %
13.01.2023 23:48 7,6 C 6,7 C 3,3 C 87 % 1016,0 hPa 0,0 l/m 0 min 0 min 0 W/m 16,1 km/h (3 Bft) 95,74 %
13.01.2023 23:50 7,6 C 6,7 C 3,3 C 87 % 1015,9 hPa 0,0 l/m 0 min 0 min 0 W/m 25,7 km/h (4 Bft) 89,13 %
13.01.2023 23:52 7,6 C 6,7 C 3,3 C 87 % 1015,9 hPa 0,0 l/m 0 min 0 min 0 W/m 12,9 km/h (3 Bft) 93,62 %
13.01.2023 23:54 7,6 C 6,7 C 3,3 C 87 % 1015,8 hPa 0,0 l/m 0 min 0 min 0 W/m 22,5 km/h (4 Bft) 95,74 %
13.01.2023 23:56 7,6 C 6,7 C 3,3 C 87 % 1015,8 hPa 0,0 l/m 0 min 0 min 0 W/m 16,1 km/h (3 Bft) 89,36 %
13.01.2023 23:58 7,6 C 6,7 C 3,3 C 87 % 1015,8 hPa 0,0 l/m 0 min 0 min 0 W/m 22,5 km/h (4 Bft) 82,98 %
_ Min-Zeit 23:08 07:32 22:18 12:00 02:06 - - - - 03:22 22:50
Minimum _ 7,3 C 6,7 C 3,3 C 79 % 1004,9 hPa - - - - 6,4 km/h (2 Bft) 42,11 %
_ Max-Zeit 00:14 11:46 00:07 00:00 23:48 00:32 09:52 00:12 11:54 00:28 00:04
Maximum _ 10,6 C 10,6 C 7,2 C 96 % 1016,0 hPa 0,2 l/m 2 min 4 min 315 W/m 54,7 km/h
W-SW (7 Bft)
100,00 %
Durchschnitt _ 8,6 C 7,9 C 4,8 C 86 % 1008,7 hPa #0,2 l/m #1:38 h #2:50 h 77 W/m 21,9 km/h (4 Bft) 95,51 %
© 2023 W. Hausmann